Wetterdaten: Sonntag, 15.11.2015
Datum Zeit Temp. Aussen Temp. o. S. +5cm Feuchte Auss BlattFeu 1 Luftdruck Regen Sonnenschein Regendauer Solar Windben Empfang
15.11.2015 00:00 9,7 C 9,4 C 8,3 C 97 % 15 lf 1015,1 hPa 0,0 l/m 0 min 0 min 0 W/m 46,0 km/h (6 Bft) 93,62 %
15.11.2015 00:02 9,8 C 9,4 C 8,3 C 97 % 15 lf 1015,1 hPa 0,0 l/m 0 min 0 min 0 W/m 58,6 km/h (7 Bft) 97,56 %
15.11.2015 00:06 9,8 C 10,0 C 8,3 C 96 % 15 lf 1014,9 hPa 0,0 l/m 0 min 0 min 0 W/m 60,7 km/h (7 Bft) 97,85 %
15.11.2015 00:08 9,9 C 10,0 C 8,3 C 96 % 15 lf 1014,8 hPa 0,0 l/m 0 min 0 min 0 W/m 54,4 km/h (7 Bft) 100,00 %
15.11.2015 00:10 9,9 C 10,0 C 8,3 C 96 % 15 lf 1014,8 hPa 0,0 l/m 0 min 0 min 0 W/m 46,0 km/h (6 Bft) 100,00 %
15.11.2015 00:12 9,9 C 10,0 C 8,3 C 96 % 15 lf 1014,8 hPa 0,0 l/m 0 min 0 min 0 W/m 41,8 km/h (6 Bft) 100,00 %
15.11.2015 00:14 10,0 C 10,0 C 8,3 C 96 % 15 lf 1014,8 hPa 0,0 l/m 0 min 0 min 0 W/m 37,7 km/h (5 Bft) 97,87 %
15.11.2015 00:16 10,0 C 10,0 C 8,3 C 96 % 15 lf 1014,8 hPa 0,0 l/m 0 min 0 min 0 W/m 48,1 km/h (6 Bft) 100,00 %
15.11.2015 00:18 10,0 C 10,0 C 8,3 C 96 % 15 lf 1014,7 hPa 0,0 l/m 0 min 0 min 0 W/m 37,7 km/h (5 Bft) 100,00 %
15.11.2015 00:20 10,0 C 10,0 C 8,3 C 96 % 15 lf 1014,7 hPa 0,0 l/m 0 min 0 min 0 W/m 35,6 km/h (5 Bft) 98,00 %
15.11.2015 00:22 10,1 C 10,0 C 8,3 C 96 % 15 lf 1014,9 hPa 0,0 l/m 0 min 0 min 0 W/m 43,9 km/h (6 Bft) 100,00 %
15.11.2015 00:24 10,1 C 10,0 C 8,3 C 96 % 15 lf 1014,6 hPa 0,0 l/m 0 min 0 min 0 W/m 35,6 km/h (5 Bft) 93,62 %
15.11.2015 00:26 10,1 C 10,0 C 8,3 C 96 % 15 lf 1014,7 hPa 0,0 l/m 0 min 0 min 0 W/m 52,3 km/h (7 Bft) 98,21 %
15.11.2015 00:28 10,1 C 10,0 C 8,3 C 96 % 15 lf 1014,6 hPa 0,0 l/m 0 min 2 min 0 W/m 33,5 km/h (5 Bft) 95,92 %
15.11.2015 00:30 10,1 C 10,0 C 8,3 C 96 % 15 lf 1014,6 hPa 0,0 l/m 0 min 0 min 0 W/m 50,2 km/h (7 Bft) 93,62 %
15.11.2015 00:32 10,1 C 10,0 C 8,3 C 96 % 15 lf 1014,7 hPa 0,0 l/m 0 min 0 min 0 W/m 41,8 km/h (6 Bft) 97,22 %
15.11.2015 00:34 10,1 C 10,0 C 8,3 C 96 % 15 lf 1014,5 hPa 0,0 l/m 0 min 0 min 0 W/m 50,2 km/h (7 Bft) 95,65 %
15.11.2015 00:36 10,1 C 10,0 C 8,3 C 96 % 15 lf 1014,5 hPa 0,0 l/m 0 min 0 min 0 W/m 43,9 km/h (6 Bft) 89,29 %
15.11.2015 00:38 10,2 C 10,0 C 8,3 C 96 % 15 lf 1014,6 hPa 0,0 l/m 0 min 0 min 0 W/m 41,8 km/h (6 Bft) 96,00 %
15.11.2015 00:40 10,2 C 10,0 C 8,3 C 96 % 15 lf 1014,5 hPa 0,0 l/m 0 min 0 min 0 W/m 52,3 km/h (7 Bft) 93,48 %
15.11.2015 00:42 10,2 C 10,0 C 8,9 C 96 % 15 lf 1014,4 hPa 0,0 l/m 0 min 0 min 0 W/m 48,1 km/h (6 Bft) 95,74 %
15.11.2015 00:44 10,2 C 10,0 C 8,9 C 96 % 15 lf 1014,4 hPa 0,0 l/m 0 min 0 min 0 W/m 46,0 km/h (6 Bft) 93,62 %
15.11.2015 00:46 10,2 C 10,0 C 8,9 C 96 % 15 lf 1014,3 hPa 0,0 l/m 0 min 0 min 0 W/m 33,5 km/h (5 Bft) 94,29 %
15.11.2015 00:48 10,2 C 10,0 C 8,9 C 96 % 15 lf 1014,3 hPa 0,0 l/m 0 min 0 min 0 W/m 29,3 km/h (5 Bft) 94,64 %
15.11.2015 00:50 10,2 C 10,0 C 8,9 C 96 % 15 lf 1014,3 hPa 0,0 l/m 0 min 2 min 0 W/m 39,7 km/h (6 Bft) 92,00 %
15.11.2015 00:52 10,2 C 10,0 C 8,9 C 96 % 15 lf 1014,3 hPa 0,0 l/m 0 min 0 min 0 W/m 48,1 km/h (6 Bft) 93,62 %
15.11.2015 00:54 10,3 C 10,0 C 8,9 C 96 % 15 lf 1014,2 hPa 0,0 l/m 0 min 0 min 0 W/m 35,6 km/h (5 Bft) 94,29 %
15.11.2015 00:56 10,3 C 10,0 C 8,9 C 96 % 15 lf 1014,3 hPa 0,0 l/m 0 min 0 min 0 W/m 35,6 km/h (5 Bft) 94,55 %
15.11.2015 00:58 10,3 C 10,0 C 8,9 C 96 % 15 lf 1014,3 hPa 0,0 l/m 0 min 0 min 0 W/m 41,8 km/h (6 Bft) 94,00 %
15.11.2015 01:00 10,3 C 10,0 C 8,9 C 96 % 15 lf 1014,2 hPa 0,0 l/m 0 min 0 min 0 W/m 41,8 km/h (6 Bft) 97,87 %
15.11.2015 01:02 10,3 C 10,0 C 8,9 C 96 % 15 lf 1014,2 hPa 0,0 l/m 0 min 0 min 0 W/m 35,6 km/h (5 Bft) 91,43 %
15.11.2015 01:04 10,4 C 10,0 C 8,9 C 96 % 15 lf 1014,0 hPa 0,0 l/m 0 min 0 min 0 W/m 48,1 km/h (6 Bft) 92,73 %
15.11.2015 01:06 10,4 C 10,0 C 8,9 C 96 % 15 lf 1014,0 hPa 0,0 l/m 0 min 0 min 0 W/m 39,7 km/h (6 Bft) 94,00 %
15.11.2015 01:08 10,4 C 10,0 C 8,9 C 96 % 15 lf 1014,0 hPa 0,0 l/m 0 min 0 min 0 W/m 33,5 km/h (5 Bft) 94,44 %
15.11.2015 01:10 10,4 C 10,0 C 8,9 C 96 % 15 lf 1013,9 hPa 0,0 l/m 0 min 2 min 0 W/m 37,7 km/h (5 Bft) 91,30 %
15.11.2015 01:12 10,4 C 10,0 C 8,9 C 96 % 15 lf 1014,0 hPa 0,0 l/m 0 min 0 min 0 W/m 41,8 km/h (6 Bft) 95,74 %
15.11.2015 01:14 10,4 C 10,0 C 8,9 C 96 % 15 lf 1014,0 hPa 0,0 l/m 0 min 0 min 0 W/m 43,9 km/h (6 Bft) 93,62 %
15.11.2015 01:16 10,5 C 10,0 C 8,9 C 96 % 15 lf 1013,9 hPa 0,0 l/m 0 min 0 min 0 W/m 37,7 km/h (5 Bft) 93,62 %
15.11.2015 01:18 10,5 C 10,0 C 8,9 C 95 % 15 lf 1013,8 hPa 0,0 l/m 0 min 0 min 0 W/m 39,7 km/h (6 Bft) 98,18 %
15.11.2015 01:20 10,5 C 10,0 C 8,9 C 96 % 15 lf 1013,8 hPa 0,0 l/m 0 min 0 min 0 W/m 48,1 km/h (6 Bft) 94,00 %
15.11.2015 01:22 10,5 C 10,0 C 8,9 C 96 % 15 lf 1013,7 hPa 0,0 l/m 0 min 0 min 0 W/m 41,8 km/h (6 Bft) 95,74 %
15.11.2015 01:24 10,5 C 10,0 C 8,9 C 96 % 15 lf 1013,7 hPa 0,0 l/m 0 min 0 min 0 W/m 37,7 km/h (5 Bft) 97,87 %
15.11.2015 01:26 10,6 C 10,0 C 8,9 C 96 % 15 lf 1013,8 hPa 0,0 l/m 0 min 0 min 0 W/m 43,9 km/h (6 Bft) 95,74 %
15.11.2015 01:28 10,6 C 10,0 C 8,9 C 96 % 15 lf 1013,7 hPa 0,0 l/m 0 min 0 min 0 W/m 39,7 km/h (6 Bft) 91,43 %
15.11.2015 01:30 10,6 C 10,0 C 8,9 C 96 % 15 lf 1013,7 hPa 0,0 l/m 0 min 0 min 0 W/m 35,6 km/h (5 Bft) 96,36 %
15.11.2015 01:32 10,6 C 10,0 C 8,9 C 95 % 15 lf 1013,8 hPa 0,0 l/m 0 min 0 min 0 W/m 52,3 km/h (7 Bft) 89,36 %
15.11.2015 01:34 10,6 C 10,6 C 8,9 C 95 % 15 lf 1013,7 hPa 0,0 l/m 0 min 0 min 0 W/m 48,1 km/h (6 Bft) 94,00 %
15.11.2015 01:36 10,6 C 10,6 C 8,9 C 95 % 15 lf 1013,7 hPa 0,0 l/m 0 min 0 min 0 W/m 41,8 km/h (6 Bft) 95,74 %
15.11.2015 01:38 10,6 C 10,6 C 8,9 C 95 % 15 lf 1013,6 hPa 0,0 l/m 0 min 0 min 0 W/m 37,7 km/h (5 Bft) 97,14 %
15.11.2015 01:40 10,6 C 10,6 C 8,9 C 95 % 15 lf 1013,6 hPa 0,0 l/m 0 min 0 min 0 W/m 41,8 km/h (6 Bft) 98,18 %
15.11.2015 01:42 10,6 C 10,6 C 8,9 C 95 % 15 lf 1013,5 hPa 0,0 l/m 0 min 0 min 0 W/m 33,5 km/h (5 Bft) 92,00 %
15.11.2015 01:44 10,6 C 10,6 C 8,9 C 95 % 15 lf 1013,4 hPa 0,0 l/m 0 min 0 min 0 W/m 33,5 km/h (5 Bft) 95,74 %
15.11.2015 01:46 10,7 C 10,6 C 8,9 C 95 % 15 lf 1013,4 hPa 0,0 l/m 0 min 0 min 0 W/m 31,4 km/h (5 Bft) 94,29 %
15.11.2015 01:48 10,7 C 10,6 C 8,9 C 95 % 15 lf 1013,3 hPa 0,0 l/m 0 min 0 min 0 W/m 27,2 km/h (4 Bft) 98,21 %
15.11.2015 01:50 10,7 C 10,6 C 8,9 C 95 % 15 lf 1013,3 hPa 0,0 l/m 0 min 0 min 0 W/m 46,0 km/h (6 Bft) 98,00 %
15.11.2015 01:52 10,7 C 10,6 C 8,9 C 95 % 15 lf 1013,3 hPa 0,0 l/m 0 min 0 min 0 W/m 39,7 km/h (6 Bft) 91,84 %
15.11.2015 01:54 10,7 C 10,6 C 8,9 C 95 % 14 lf 1013,3 hPa 0,0 l/m 0 min 0 min 0 W/m 37,7 km/h (5 Bft) 93,62 %
15.11.2015 01:56 10,7 C 10,6 C 8,9 C 95 % 14 lf 1013,3 hPa 0,0 l/m 0 min 0 min 0 W/m 31,4 km/h (5 Bft) 97,14 %
15.11.2015 01:58 10,7 C 10,6 C 8,9 C 95 % 14 lf 1013,4 hPa 0,0 l/m 0 min 0 min 0 W/m 31,4 km/h (5 Bft) 89,36 %
15.11.2015 02:00 10,7 C 10,6 C 8,9 C 95 % 14 lf 1013,4 hPa 0,0 l/m 0 min 0 min 0 W/m 31,4 km/h (5 Bft) 98,21 %
15.11.2015 02:02 10,7 C 10,6 C 8,9 C 95 % 14 lf 1013,2 hPa 0,0 l/m 0 min 0 min 0 W/m 46,0 km/h (6 Bft) 95,65 %
15.11.2015 02:04 10,7 C 10,6 C 8,9 C 95 % 14 lf 1013,2 hPa 0,0 l/m 0 min 0 min 0 W/m 37,7 km/h (5 Bft) 98,00 %
15.11.2015 02:06 10,8 C 10,6 C 8,9 C 95 % 13 lf 1013,2 hPa 0,0 l/m 0 min 0 min 0 W/m 41,8 km/h (6 Bft) 97,87 %
15.11.2015 02:08 10,8 C 10,6 C 8,9 C 95 % 13 lf 1013,3 hPa 0,0 l/m 0 min 0 min 0 W/m 37,7 km/h (5 Bft) 97,14 %
15.11.2015 02:10 10,8 C 10,6 C 8,9 C 95 % 12 lf 1013,1 hPa 0,0 l/m 0 min 0 min 0 W/m 35,6 km/h (5 Bft) 97,87 %
15.11.2015 02:12 10,8 C 10,6 C 8,9 C 95 % 11 lf 1013,2 hPa 0,0 l/m 0 min 0 min 0 W/m 37,7 km/h (5 Bft) 97,87 %
15.11.2015 02:14 10,8 C 10,6 C 9,4 C 95 % 10 lf 1013,2 hPa 0,0 l/m 0 min 0 min 0 W/m 43,9 km/h (6 Bft) 95,74 %
15.11.2015 02:16 10,8 C 10,6 C 9,4 C 95 % 7 lf 1013,1 hPa 0,0 l/m 0 min 0 min 0 W/m 41,8 km/h (6 Bft) 95,74 %
15.11.2015 02:18 10,8 C 10,6 C 9,4 C 95 % 5 lf 1013,2 hPa 0,0 l/m 0 min 0 min 0 W/m 31,4 km/h (5 Bft) 94,55 %
15.11.2015 02:20 10,8 C 10,6 C 9,4 C 95 % 4 lf 1013,1 hPa 0,0 l/m 0 min 0 min 0 W/m 37,7 km/h (5 Bft) 98,00 %
15.11.2015 02:22 10,9 C 10,6 C 9,4 C 95 % 3 lf 1013,1 hPa 0,0 l/m 0 min 0 min 0 W/m 33,5 km/h (5 Bft) 97,14 %
15.11.2015 02:24 10,9 C 10,6 C 9,4 C 95 % 3 lf 1013,0 hPa 0,0 l/m 0 min 0 min 0 W/m 33,5 km/h (5 Bft) 95,74 %
15.11.2015 02:26 10,9 C 10,6 C 9,4 C 95 % 2 lf 1013,0 hPa 0,0 l/m 0 min 0 min 0 W/m 33,5 km/h (5 Bft) 97,87 %
15.11.2015 02:28 10,9 C 10,6 C 9,4 C 95 % 2 lf 1013,0 hPa 0,0 l/m 0 min 0 min 0 W/m 39,7 km/h (6 Bft) 94,55 %
15.11.2015 02:30 10,9 C 10,6 C 9,4 C 95 % 2 lf 1013,0 hPa 0,0 l/m 0 min 0 min 0 W/m 46,0 km/h (6 Bft) 96,00 %
15.11.2015 02:32 10,9 C 10,6 C 9,4 C 95 % 3 lf 1013,0 hPa 0,0 l/m 0 min 0 min 0 W/m 37,7 km/h (5 Bft) 97,14 %
15.11.2015 02:34 10,9 C 10,6 C 9,4 C 95 % 3 lf 1013,0 hPa 0,0 l/m 0 min 0 min 0 W/m 39,7 km/h (6 Bft) 97,87 %
15.11.2015 02:36 10,9 C 10,6 C 9,4 C 95 % 2 lf 1012,8 hPa 0,0 l/m 0 min 0 min 0 W/m 37,7 km/h (5 Bft) 95,74 %
15.11.2015 02:38 11,0 C 10,6 C 9,4 C 95 % 2 lf 1013,0 hPa 0,0 l/m 0 min 0 min 0 W/m 39,7 km/h (6 Bft) 97,87 %
15.11.2015 02:40 11,0 C 10,6 C 9,4 C 95 % 2 lf 1013,0 hPa 0,0 l/m 0 min 0 min 0 W/m 43,9 km/h (6 Bft) 98,18 %
15.11.2015 02:42 11,0 C 10,6 C 9,4 C 95 % 3 lf 1012,9 hPa 0,0 l/m 0 min 0 min 0 W/m 43,9 km/h (6 Bft) 100,00 %
15.11.2015 02:44 11,0 C 10,6 C 9,4 C 95 % 3 lf 1012,9 hPa 0,0 l/m 0 min 0 min 0 W/m 31,4 km/h (5 Bft) 100,00 %
15.11.2015 02:46 11,1 C 10,6 C 9,4 C 95 % 3 lf 1012,8 hPa 0,0 l/m 0 min 0 min 0 W/m 37,7 km/h (5 Bft) 97,87 %
15.11.2015 02:48 11,1 C 10,6 C 9,4 C 95 % 4 lf 1012,8 hPa 0,0 l/m 0 min 0 min 0 W/m 33,5 km/h (5 Bft) 100,00 %
15.11.2015 02:50 11,1 C 10,6 C 9,4 C 95 % 4 lf 1012,9 hPa 0,0 l/m 0 min 0 min 0 W/m 43,9 km/h (6 Bft) 97,96 %
15.11.2015 02:52 11,1 C 10,6 C 9,4 C 95 % 6 lf 1012,8 hPa 0,0 l/m 0 min 0 min 0 W/m 41,8 km/h (6 Bft) 100,00 %
15.11.2015 02:54 11,1 C 10,6 C 9,4 C 95 % 12 lf 1012,7 hPa 0,0 l/m 0 min 0 min 0 W/m 41,8 km/h (6 Bft) 100,00 %
15.11.2015 02:56 11,1 C 10,6 C 9,4 C 95 % 12 lf 1012,7 hPa 0,0 l/m 0 min 2 min 0 W/m 35,6 km/h (5 Bft) 100,00 %
15.11.2015 02:58 11,1 C 10,6 C 9,4 C 95 % 15 lf 1012,7 hPa 0,0 l/m 0 min 2 min 0 W/m 31,4 km/h (5 Bft) 98,21 %
15.11.2015 03:00 11,1 C 10,6 C 9,4 C 95 % 15 lf 1012,6 hPa 0,0 l/m 0 min 2 min 0 W/m 41,8 km/h (6 Bft) 97,83 %
15.11.2015 03:02 11,1 C 10,6 C 9,4 C 95 % 15 lf 1012,5 hPa 0,0 l/m 0 min 2 min 0 W/m 37,7 km/h (5 Bft) 100,00 %
15.11.2015 03:04 11,1 C 10,6 C 9,4 C 95 % 15 lf 1012,5 hPa 0,0 l/m 0 min 2 min 0 W/m 31,4 km/h (5 Bft) 100,00 %
15.11.2015 03:06 11,1 C 10,6 C 9,4 C 95 % 15 lf 1012,4 hPa 0,0 l/m 0 min 2 min 0 W/m 37,7 km/h (5 Bft) 100,00 %
15.11.2015 03:08 11,1 C 10,6 C 9,4 C 95 % 15 lf 1012,4 hPa 0,0 l/m 0 min 2 min 0 W/m 33,5 km/h (5 Bft) 96,43 %
15.11.2015 03:10 11,1 C 10,6 C 9,4 C 95 % 15 lf 1012,3 hPa 0,0 l/m 0 min 2 min 0 W/m 39,7 km/h (6 Bft) 100,00 %
15.11.2015 03:12 11,1 C 10,6 C 9,4 C 95 % 15 lf 1012,2 hPa 0,0 l/m 0 min 2 min 0 W/m 35,6 km/h (5 Bft) 97,14 %
15.11.2015 03:14 11,1 C 10,6 C 9,4 C 95 % 15 lf 1012,1 hPa 0,0 l/m 0 min 2 min 0 W/m 35,6 km/h (5 Bft) 100,00 %
15.11.2015 03:16 11,1 C 10,6 C 9,4 C 95 % 15 lf 1012,0 hPa 0,0 l/m 0 min 2 min 0 W/m 35,6 km/h (5 Bft) 100,00 %
15.11.2015 03:18 11,1 C 10,6 C 9,4 C 95 % 15 lf 1012,1 hPa 0,0 l/m 0 min 2 min 0 W/m 27,2 km/h (4 Bft) 97,83 %
15.11.2015 03:20 11,2 C 10,6 C 9,4 C 95 % 15 lf 1012,1 hPa 0,2 l/m 0 min 2 min 0 W/m 35,6 km/h (5 Bft) 96,23 %
15.11.2015 03:22 11,2 C 10,6 C 9,4 C 95 % 15 lf 1012,0 hPa 0,0 l/m 0 min 2 min 0 W/m 39,7 km/h (6 Bft) 97,56 %
15.11.2015 03:24 11,2 C 10,6 C 9,4 C 96 % 15 lf 1012,0 hPa 0,0 l/m 0 min 2 min 0 W/m 41,8 km/h (6 Bft) 95,74 %
15.11.2015 03:26 11,2 C 10,6 C 9,4 C 96 % 15 lf 1011,9 hPa 0,0 l/m 0 min 2 min 0 W/m 37,7 km/h (5 Bft) 92,73 %
15.11.2015 03:28 11,2 C 10,6 C 9,4 C 96 % 15 lf 1011,9 hPa 0,0 l/m 0 min 2 min 0 W/m 50,2 km/h (7 Bft) 96,00 %
15.11.2015 03:30 11,2 C 10,6 C 9,4 C 96 % 15 lf 1011,8 hPa 0,2 l/m 0 min 2 min 0 W/m 29,3 km/h (5 Bft) 88,57 %
15.11.2015 03:32 11,2 C 10,6 C 9,4 C 96 % 15 lf 1011,8 hPa 0,0 l/m 0 min 2 min 0 W/m 37,7 km/h (5 Bft) 95,74 %
15.11.2015 03:34 11,2 C 10,6 C 9,4 C 96 % 15 lf 1011,7 hPa 0,0 l/m 0 min 2 min 0 W/m 39,7 km/h (6 Bft) 98,21 %
15.11.2015 03:36 11,2 C 10,6 C 9,4 C 96 % 15 lf 1011,7 hPa 0,0 l/m 0 min 2 min 0 W/m 43,9 km/h (6 Bft) 95,92 %
15.11.2015 03:38 11,2 C 10,6 C 9,4 C 96 % 15 lf 1011,7 hPa 0,2 l/m 0 min 2 min 0 W/m 41,8 km/h (6 Bft) 94,44 %
15.11.2015 03:40 11,2 C 10,6 C 9,4 C 96 % 15 lf 1011,6 hPa 0,0 l/m 0 min 2 min 0 W/m 33,5 km/h (5 Bft) 93,48 %
15.11.2015 03:42 11,2 C 10,6 C 9,4 C 96 % 15 lf 1011,6 hPa 0,2 l/m 0 min 2 min 0 W/m 33,5 km/h (5 Bft) 92,86 %
15.11.2015 03:44 11,2 C 10,6 C 9,4 C 96 % 15 lf 1011,4 hPa 0,0 l/m 0 min 2 min 0 W/m 46,0 km/h (6 Bft) 96,00 %
15.11.2015 03:46 11,2 C 11,1 C 9,4 C 96 % 15 lf 1011,5 hPa 0,0 l/m 0 min 2 min 0 W/m 35,6 km/h (5 Bft) 91,43 %
15.11.2015 03:48 11,3 C 11,1 C 9,4 C 96 % 15 lf 1011,3 hPa 0,0 l/m 0 min 2 min 0 W/m 48,1 km/h (6 Bft) 93,62 %
15.11.2015 03:50 11,3 C 11,1 C 9,4 C 96 % 15 lf 1011,3 hPa 0,0 l/m 0 min 2 min 0 W/m 31,4 km/h (5 Bft) 96,36 %
15.11.2015 03:52 11,3 C 11,1 C 9,4 C 96 % 15 lf 1011,2 hPa 0,2 l/m 0 min 2 min 0 W/m 35,6 km/h (5 Bft) 96,00 %
15.11.2015 03:54 11,3 C 11,1 C 10,0 C 96 % 15 lf 1011,1 hPa 0,0 l/m 0 min 0 min 0 W/m 43,9 km/h (6 Bft) 94,29 %
15.11.2015 03:56 11,3 C 11,1 C 10,0 C 96 % 15 lf 1011,2 hPa 0,0 l/m 0 min 2 min 0 W/m 37,7 km/h (5 Bft) 97,87 %
15.11.2015 03:58 11,3 C 11,1 C 10,0 C 96 % 15 lf 1011,1 hPa 0,0 l/m 0 min 2 min 0 W/m 35,6 km/h (5 Bft) 94,64 %
15.11.2015 04:00 11,4 C 11,1 C 10,0 C 96 % 15 lf 1011,2 hPa 0,0 l/m 0 min 2 min 0 W/m 33,5 km/h (5 Bft) 97,96 %
15.11.2015 04:02 11,4 C 11,1 C 10,0 C 96 % 15 lf 1011,2 hPa 0,0 l/m 0 min 2 min 0 W/m 43,9 km/h (6 Bft) 92,59 %
15.11.2015 04:04 11,4 C 11,1 C 10,0 C 96 % 15 lf 1011,0 hPa 0,0 l/m 0 min 2 min 0 W/m 41,8 km/h (6 Bft) 97,83 %
15.11.2015 04:06 11,4 C 11,1 C 10,0 C 96 % 15 lf 1011,0 hPa 0,0 l/m 0 min 2 min 0 W/m 39,7 km/h (6 Bft) 95,74 %
15.11.2015 04:08 11,4 C 11,1 C 10,0 C 96 % 15 lf 1010,9 hPa 0,0 l/m 0 min 2 min 0 W/m 29,3 km/h (5 Bft) 94,64 %
15.11.2015 04:10 11,5 C 11,1 C 10,0 C 96 % 15 lf 1010,9 hPa 0,0 l/m 0 min 2 min 0 W/m 39,7 km/h (6 Bft) 97,96 %
15.11.2015 04:12 11,5 C 11,1 C 10,0 C 96 % 15 lf 1010,8 hPa 0,0 l/m 0 min 0 min 0 W/m 39,7 km/h (6 Bft) 100,00 %
15.11.2015 04:14 11,6 C 11,1 C 10,0 C 96 % 15 lf 1010,9 hPa 0,0 l/m 0 min 2 min 0 W/m 46,0 km/h (6 Bft) 97,87 %
15.11.2015 04:16 11,6 C 11,1 C 10,0 C 96 % 15 lf 1010,7 hPa 0,0 l/m 0 min 0 min 0 W/m 46,0 km/h (6 Bft) 100,00 %
15.11.2015 04:18 11,6 C 11,7 C 10,0 C 96 % 15 lf 1010,7 hPa 0,0 l/m 0 min 0 min 0 W/m 43,9 km/h (6 Bft) 100,00 %
15.11.2015 04:20 11,6 C 11,7 C 10,0 C 96 % 15 lf 1010,7 hPa 0,0 l/m 0 min 2 min 0 W/m 48,1 km/h (6 Bft) 97,14 %
15.11.2015 04:22 11,7 C 11,7 C 10,0 C 96 % 15 lf 1010,8 hPa 0,0 l/m 0 min 2 min 0 W/m 48,1 km/h (6 Bft) 95,74 %
15.11.2015 04:24 11,7 C 11,7 C 10,0 C 96 % 15 lf 1010,8 hPa 0,0 l/m 0 min 2 min 0 W/m 46,0 km/h (6 Bft) 100,00 %
15.11.2015 04:26 11,7 C 11,7 C 10,0 C 96 % 15 lf 1010,9 hPa 0,0 l/m 0 min 0 min 0 W/m 37,7 km/h (5 Bft) 92,73 %
15.11.2015 04:28 11,8 C 11,7 C 10,0 C 97 % 15 lf 1010,8 hPa 0,0 l/m 0 min 0 min 0 W/m 37,7 km/h (5 Bft) 98,00 %
15.11.2015 04:30 11,8 C 11,7 C 10,0 C 97 % 15 lf 1010,7 hPa 0,0 l/m 0 min 0 min 0 W/m 37,7 km/h (5 Bft) 94,29 %
15.11.2015 04:32 11,8 C 11,7 C 10,0 C 97 % 15 lf 1010,7 hPa 0,0 l/m 0 min 0 min 0 W/m 46,0 km/h (6 Bft) 93,62 %
15.11.2015 04:34 11,8 C 11,7 C 10,0 C 97 % 15 lf 1010,9 hPa 0,0 l/m 0 min 0 min 0 W/m 50,2 km/h (7 Bft) 97,87 %
15.11.2015 04:36 11,9 C 11,7 C 10,0 C 97 % 15 lf 1010,8 hPa 0,0 l/m 0 min 0 min 0 W/m 48,1 km/h (6 Bft) 98,18 %
15.11.2015 04:38 11,9 C 11,7 C 10,0 C 97 % 15 lf 1010,7 hPa 0,0 l/m 0 min 0 min 0 W/m 39,7 km/h (6 Bft) 95,74 %
15.11.2015 04:40 11,9 C 11,7 C 10,0 C 97 % 15 lf 1010,8 hPa 0,0 l/m 0 min 0 min 0 W/m 39,7 km/h (6 Bft) 96,00 %
15.11.2015 04:42 11,9 C 11,7 C 10,0 C 97 % 15 lf 1010,7 hPa 0,0 l/m 0 min 0 min 0 W/m 46,0 km/h (6 Bft) 94,29 %
15.11.2015 04:44 12,0 C 11,7 C 10,6 C 97 % 15 lf 1010,8 hPa 0,0 l/m 0 min 0 min 0 W/m 48,1 km/h (6 Bft) 93,62 %
15.11.2015 04:46 12,0 C 11,7 C 10,6 C 96 % 15 lf 1010,8 hPa 0,0 l/m 0 min 0 min 0 W/m 39,7 km/h (6 Bft) 94,55 %
15.11.2015 04:48 12,0 C 11,7 C 10,6 C 96 % 15 lf 1010,7 hPa 0,0 l/m 0 min 0 min 0 W/m 39,7 km/h (6 Bft) 92,00 %
15.11.2015 04:50 12,1 C 11,7 C 10,6 C 96 % 15 lf 1010,8 hPa 0,0 l/m 0 min 0 min 0 W/m 48,1 km/h (6 Bft) 94,29 %
15.11.2015 04:52 12,1 C 11,7 C 10,6 C 96 % 15 lf 1010,7 hPa 0,0 l/m 0 min 0 min 0 W/m 58,6 km/h (7 Bft) 95,74 %
15.11.2015 04:54 12,1 C 11,7 C 10,6 C 96 % 15 lf 1010,7 hPa 0,0 l/m 0 min 0 min 0 W/m 43,9 km/h (6 Bft) 92,86 %
15.11.2015 04:56 12,1 C 11,7 C 10,6 C 97 % 15 lf 1010,7 hPa 0,0 l/m 0 min 0 min 0 W/m 33,5 km/h (5 Bft) 95,92 %
15.11.2015 04:58 12,1 C 11,7 C 10,6 C 96 % 15 lf 1010,8 hPa 0,0 l/m 0 min 0 min 0 W/m 43,9 km/h (6 Bft) 94,44 %
15.11.2015 05:00 12,1 C 11,7 C 10,6 C 96 % 15 lf 1010,7 hPa 0,0 l/m 0 min 0 min 0 W/m 50,2 km/h (7 Bft) 95,74 %
15.11.2015 05:02 12,2 C 11,7 C 10,6 C 96 % 15 lf 1010,7 hPa 0,0 l/m 0 min 0 min 0 W/m 48,1 km/h (6 Bft) 94,55 %
15.11.2015 05:04 12,2 C 11,7 C 10,6 C 96 % 15 lf 1010,7 hPa 0,0 l/m 0 min 0 min 0 W/m 33,5 km/h (5 Bft) 94,00 %
15.11.2015 05:06 12,2 C 11,7 C 10,6 C 96 % 15 lf 1010,6 hPa 0,0 l/m 0 min 0 min 0 W/m 35,6 km/h (5 Bft) 94,29 %
15.11.2015 05:08 12,2 C 11,7 C 10,6 C 96 % 15 lf 1010,5 hPa 0,0 l/m 0 min 0 min 0 W/m 48,1 km/h (6 Bft) 95,74 %
15.11.2015 05:10 12,2 C 11,7 C 10,6 C 96 % 15 lf 1010,7 hPa 0,0 l/m 0 min 0 min 0 W/m 50,2 km/h (7 Bft) 92,73 %
15.11.2015 05:12 12,2 C 11,7 C 10,6 C 96 % 15 lf 1010,4 hPa 0,0 l/m 0 min 0 min 0 W/m 41,8 km/h (6 Bft) 94,00 %
15.11.2015 05:14 12,2 C 11,7 C 10,6 C 96 % 15 lf 1010,5 hPa 0,0 l/m 0 min 0 min 0 W/m 48,1 km/h (6 Bft) 91,49 %
15.11.2015 05:16 12,2 C 11,7 C 10,6 C 96 % 15 lf 1010,4 hPa 0,0 l/m 0 min 0 min 0 W/m 46,0 km/h (6 Bft) 85,71 %
15.11.2015 05:18 12,2 C 11,7 C 10,6 C 96 % 15 lf 1010,4 hPa 0,0 l/m 0 min 0 min 0 W/m 54,4 km/h (7 Bft) 93,62 %
15.11.2015 05:20 12,2 C 11,7 C 10,6 C 96 % 15 lf 1010,3 hPa 0,0 l/m 0 min 0 min 0 W/m 43,9 km/h (6 Bft) 92,73 %
15.11.2015 05:22 12,3 C 11,7 C 10,6 C 96 % 15 lf 1010,5 hPa 0,0 l/m 0 min 0 min 0 W/m 50,2 km/h (7 Bft) 94,00 %
15.11.2015 05:24 12,3 C 11,7 C 10,6 C 96 % 15 lf 1010,3 hPa 0,0 l/m 0 min 0 min 0 W/m 46,0 km/h (6 Bft) 88,89 %
15.11.2015 05:26 12,3 C 11,7 C 10,6 C 96 % 15 lf 1010,2 hPa 0,0 l/m 0 min 0 min 0 W/m 41,8 km/h (6 Bft) 93,48 %
15.11.2015 05:28 12,3 C 11,7 C 10,6 C 96 % 15 lf 1010,2 hPa 0,0 l/m 0 min 0 min 0 W/m 39,7 km/h (6 Bft) 96,43 %
15.11.2015 05:30 12,3 C 11,7 C 10,6 C 96 % 15 lf 1010,2 hPa 0,0 l/m 0 min 0 min 0 W/m 46,0 km/h (6 Bft) 98,00 %
15.11.2015 05:32 12,3 C 12,2 C 10,6 C 96 % 15 lf 1010,2 hPa 0,0 l/m 0 min 0 min 0 W/m 39,7 km/h (6 Bft) 94,29 %
15.11.2015 05:34 12,3 C 12,2 C 10,6 C 96 % 15 lf 1010,4 hPa 0,0 l/m 0 min 0 min 0 W/m 54,4 km/h (7 Bft) 93,62 %
15.11.2015 05:36 12,3 C 12,2 C 10,6 C 96 % 15 lf 1010,4 hPa 0,0 l/m 0 min 0 min 0 W/m 48,1 km/h (6 Bft) 91,30 %
15.11.2015 05:38 12,3 C 12,2 C 10,6 C 96 % 15 lf 1010,4 hPa 0,0 l/m 0 min 0 min 0 W/m 48,1 km/h (6 Bft) 98,21 %
15.11.2015 05:40 12,3 C 12,2 C 10,6 C 96 % 15 lf 1010,4 hPa 0,0 l/m 0 min 0 min 0 W/m 39,7 km/h (6 Bft) 98,00 %
15.11.2015 05:42 12,3 C 12,2 C 10,6 C 96 % 15 lf 1010,3 hPa 0,0 l/m 0 min 2 min 0 W/m 52,3 km/h (7 Bft) 97,14 %
15.11.2015 05:44 12,4 C 12,2 C 10,6 C 96 % 15 lf 1010,4 hPa 0,0 l/m 0 min 0 min 0 W/m 50,2 km/h (7 Bft) 95,74 %
15.11.2015 05:46 12,4 C 12,2 C 10,6 C 96 % 15 lf 1010,4 hPa 0,0 l/m 0 min 0 min 0 W/m 48,1 km/h (6 Bft) 98,18 %
15.11.2015 05:48 12,4 C 12,2 C 10,6 C 96 % 15 lf 1010,3 hPa 0,0 l/m 0 min 0 min 0 W/m 50,2 km/h (7 Bft) 100,00 %
15.11.2015 05:50 12,4 C 12,2 C 10,6 C 96 % 15 lf 1010,4 hPa 0,0 l/m 0 min 0 min 0 W/m 43,9 km/h (6 Bft) 100,00 %
15.11.2015 05:52 12,4 C 12,2 C 10,6 C 96 % 15 lf 1010,3 hPa 0,0 l/m 0 min 2 min 0 W/m 43,9 km/h (6 Bft) 97,87 %
15.11.2015 05:54 12,4 C 12,2 C 10,6 C 96 % 15 lf 1010,4 hPa 0,0 l/m 0 min 2 min 0 W/m 50,2 km/h (7 Bft) 98,21 %
15.11.2015 05:56 12,4 C 12,2 C 10,6 C 96 % 15 lf 1010,4 hPa 0,0 l/m 0 min 0 min 0 W/m 43,9 km/h (6 Bft) 97,96 %
15.11.2015 05:58 12,4 C 12,2 C 10,6 C 96 % 15 lf 1010,4 hPa 0,0 l/m 0 min 2 min 0 W/m 46,0 km/h (6 Bft) 100,00 %
15.11.2015 06:00 12,4 C 12,2 C 10,6 C 96 % 15 lf 1010,4 hPa 0,0 l/m 0 min 0 min 0 W/m 43,9 km/h (6 Bft) 100,00 %
15.11.2015 06:02 12,4 C 12,2 C 10,6 C 96 % 15 lf 1010,3 hPa 0,0 l/m 0 min 2 min 0 W/m 60,7 km/h (7 Bft) 100,00 %
15.11.2015 06:04 12,5 C 12,2 C 10,6 C 96 % 15 lf 1010,4 hPa 0,0 l/m 0 min 2 min 0 W/m 41,8 km/h (6 Bft) 96,00 %
15.11.2015 06:06 12,5 C 12,2 C 10,6 C 96 % 15 lf 1010,3 hPa 0,0 l/m 0 min 2 min 0 W/m 52,3 km/h (7 Bft) 100,00 %
15.11.2015 06:08 12,5 C 12,2 C 10,6 C 96 % 15 lf 1010,2 hPa 0,0 l/m 0 min 2 min 0 W/m 46,0 km/h (6 Bft) 96,23 %
15.11.2015 06:10 12,5 C 12,2 C 10,6 C 96 % 15 lf 1010,2 hPa 0,0 l/m 0 min 2 min 0 W/m 56,5 km/h (7 Bft) 100,00 %
15.11.2015 06:12 12,6 C 12,2 C 10,6 C 96 % 15 lf 1010,2 hPa 0,0 l/m 0 min 2 min 0 W/m 46,0 km/h (6 Bft) 100,00 %
15.11.2015 06:14 12,6 C 12,2 C 10,6 C 96 % 15 lf 1010,2 hPa 0,0 l/m 0 min 2 min 0 W/m 48,1 km/h (6 Bft) 97,87 %
15.11.2015 06:16 12,6 C 12,2 C 10,6 C 96 % 15 lf 1010,2 hPa 0,0 l/m 0 min 2 min 0 W/m 46,0 km/h (6 Bft) 95,92 %
15.11.2015 06:18 12,6 C 12,2 C 10,6 C 96 % 15 lf 1010,2 hPa 0,0 l/m 0 min 2 min 0 W/m 39,7 km/h (6 Bft) 97,14 %
15.11.2015 06:20 12,6 C 12,2 C 10,6 C 95 % 15 lf 1010,2 hPa 0,0 l/m 0 min 2 min 0 W/m 48,1 km/h (6 Bft) 96,23 %
15.11.2015 06:22 12,6 C 12,2 C 10,6 C 95 % 15 lf 1010,1 hPa 0,0 l/m 0 min 2 min 0 W/m 43,9 km/h (6 Bft) 94,00 %
15.11.2015 06:24 12,6 C 12,2 C 10,6 C 95 % 15 lf 1010,2 hPa 0,0 l/m 0 min 2 min 0 W/m 48,1 km/h (6 Bft) 91,49 %
15.11.2015 06:26 12,6 C 12,2 C 10,6 C 95 % 15 lf 1010,2 hPa 0,0 l/m 0 min 2 min 0 W/m 52,3 km/h (7 Bft) 95,92 %
15.11.2015 06:28 12,6 C 12,2 C 10,6 C 95 % 15 lf 1010,1 hPa 0,0 l/m 0 min 2 min 0 W/m 46,0 km/h (6 Bft) 94,29 %
15.11.2015 06:30 12,7 C 12,2 C 10,6 C 95 % 15 lf 1010,1 hPa 0,0 l/m 0 min 2 min 0 W/m 46,0 km/h (6 Bft) 98,15 %
15.11.2015 06:32 12,7 C 12,8 C 11,1 C 95 % 15 lf 1010,1 hPa 0,0 l/m 0 min 0 min 0 W/m 48,1 km/h (6 Bft) 97,96 %
15.11.2015 06:34 12,7 C 12,8 C 11,1 C 95 % 15 lf 1010,2 hPa 0,0 l/m 0 min 0 min 0 W/m 41,8 km/h (6 Bft) 95,74 %
15.11.2015 06:36 12,7 C 12,8 C 11,1 C 95 % 15 lf 1010,1 hPa 0,0 l/m 0 min 0 min 0 W/m 48,1 km/h (6 Bft) 95,92 %
15.11.2015 06:38 12,7 C 12,8 C 11,1 C 95 % 15 lf 1010,1 hPa 0,0 l/m 0 min 0 min 0 W/m 43,9 km/h (6 Bft) 97,14 %
15.11.2015 06:40 12,7 C 12,8 C 11,1 C 95 % 15 lf 1010,2 hPa 0,0 l/m 0 min 0 min 0 W/m 39,7 km/h (6 Bft) 96,30 %
15.11.2015 06:42 12,7 C 12,8 C 11,1 C 95 % 15 lf 1010,1 hPa 0,0 l/m 0 min 0 min 0 W/m 48,1 km/h (6 Bft) 93,88 %
15.11.2015 06:44 12,8 C 12,8 C 11,1 C 95 % 15 lf 1010,3 hPa 0,0 l/m 0 min 0 min 0 W/m 41,8 km/h (6 Bft) 97,96 %
15.11.2015 06:46 12,8 C 12,8 C 11,1 C 95 % 15 lf 1010,1 hPa 0,0 l/m 0 min 0 min 0 W/m 39,7 km/h (6 Bft) 97,14 %
15.11.2015 06:48 12,8 C 12,8 C 11,1 C 95 % 15 lf 1010,1 hPa 0,0 l/m 0 min 0 min 0 W/m 52,3 km/h (7 Bft) 96,30 %
15.11.2015 06:50 12,8 C 12,8 C 11,1 C 95 % 15 lf 1010,1 hPa 0,0 l/m 0 min 0 min 0 W/m 37,7 km/h (5 Bft) 96,00 %
15.11.2015 06:52 12,8 C 13,3 C 11,1 C 95 % 15 lf 1010,0 hPa 0,0 l/m 0 min 0 min 0 W/m 41,8 km/h (6 Bft) 93,88 %
15.11.2015 06:54 12,8 C 13,3 C 11,1 C 94 % 15 lf 1010,1 hPa 0,0 l/m 0 min 0 min 0 W/m 41,8 km/h (6 Bft) 97,87 %
15.11.2015 06:56 12,8 C 13,3 C 11,1 C 94 % 14 lf 1010,0 hPa 0,0 l/m 0 min 0 min 0 W/m 48,1 km/h (6 Bft) 94,29 %
15.11.2015 06:58 12,9 C 13,3 C 11,1 C 94 % 12 lf 1009,9 hPa 0,0 l/m 0 min 0 min 0 W/m 37,7 km/h (5 Bft) 94,34 %
15.11.2015 07:00 12,9 C 13,3 C 11,1 C 94 % 11 lf 1010,0 hPa 0,0 l/m 0 min 0 min 0 W/m 35,6 km/h (5 Bft) 98,00 %
15.11.2015 07:02 12,9 C 13,3 C 11,1 C 94 % 7 lf 1010,0 hPa 0,0 l/m 0 min 0 min 0 W/m 52,3 km/h (7 Bft) 95,92 %
15.11.2015 07:04 12,9 C 13,3 C 11,1 C 94 % 3 lf 1010,0 hPa 0,0 l/m 0 min 0 min 0 W/m 50,2 km/h (7 Bft) 97,87 %
15.11.2015 07:06 12,9 C 13,3 C 11,1 C 94 % 2 lf 1010,0 hPa 0,0 l/m 0 min 0 min 0 W/m 41,8 km/h (6 Bft) 97,14 %
15.11.2015 07:08 12,9 C 13,3 C 11,1 C 94 % 1 lf 1010,0 hPa 0,0 l/m 0 min 0 min 0 W/m 48,1 km/h (6 Bft) 96,23 %
15.11.2015 07:10 13,0 C 13,3 C 11,1 C 94 % 1 lf 1010,0 hPa 0,0 l/m 0 min 0 min 0 W/m 41,8 km/h (6 Bft) 98,00 %
15.11.2015 07:12 13,0 C 13,3 C 11,1 C 94 % 1 lf 1010,0 hPa 0,0 l/m 0 min 0 min 0 W/m 48,1 km/h (6 Bft) 95,92 %
15.11.2015 07:14 13,0 C 13,3 C 11,1 C 94 % 1 lf 1010,1 hPa 0,0 l/m 0 min 0 min 0 W/m 48,1 km/h (6 Bft) 97,14 %
15.11.2015 07:16 13,1 C 13,3 C 11,1 C 93 % 1 lf 1010,2 hPa 0,0 l/m 0 min 0 min 0 W/m 41,8 km/h (6 Bft) 96,30 %
15.11.2015 07:18 13,1 C 13,3 C 11,1 C 93 % 0 lf 1010,2 hPa 0,0 l/m 0 min 0 min 0 W/m 46,0 km/h (6 Bft) 89,13 %
15.11.2015 07:20 13,1 C 13,3 C 11,1 C 93 % 0 lf 1010,1 hPa 0,0 l/m 0 min 0 min 0 W/m 41,8 km/h (6 Bft) 98,00 %
15.11.2015 07:22 13,1 C 13,3 C 11,1 C 93 % 0 lf 1010,2 hPa 0,0 l/m 0 min 0 min 0 W/m 50,2 km/h (7 Bft) 95,92 %
15.11.2015 07:24 13,2 C 13,3 C 11,1 C 93 % 0 lf 1010,2 hPa 0,0 l/m 0 min 0 min 0 W/m 46,0 km/h (6 Bft) 97,14 %
15.11.2015 07:26 13,2 C 13,3 C 11,7 C 93 % 0 lf 1010,2 hPa 0,0 l/m 0 min 0 min 0 W/m 52,3 km/h (7 Bft) 94,44 %
15.11.2015 07:28 13,2 C 13,3 C 11,1 C 93 % 0 lf 1010,2 hPa 0,0 l/m 0 min 0 min 0 W/m 48,1 km/h (6 Bft) 98,00 %
15.11.2015 07:30 13,2 C 13,3 C 11,1 C 93 % 0 lf 1010,1 hPa 0,0 l/m 0 min 0 min 0 W/m 39,7 km/h (6 Bft) 93,75 %
15.11.2015 07:32 13,2 C 13,3 C 11,1 C 93 % 0 lf 1010,1 hPa 0,0 l/m 0 min 0 min 0 W/m 39,7 km/h (6 Bft) 94,44 %
15.11.2015 07:34 13,2 C 13,3 C 11,7 C 93 % 0 lf 1010,2 hPa 0,0 l/m 0 min 0 min 0 W/m 46,0 km/h (6 Bft) 88,68 %
15.11.2015 07:36 13,3 C 13,3 C 11,7 C 92 % 0 lf 1010,2 hPa 0,0 l/m 0 min 0 min 0 W/m 43,9 km/h (6 Bft) 95,74 %
15.11.2015 07:38 13,3 C 13,3 C 11,7 C 92 % 0 lf 1010,2 hPa 0,0 l/m 0 min 0 min 0 W/m 41,8 km/h (6 Bft) 96,00 %
15.11.2015 07:40 13,3 C 13,3 C 11,7 C 92 % 0 lf 1010,2 hPa 0,0 l/m 0 min 0 min 0 W/m 37,7 km/h (5 Bft) 95,65 %
15.11.2015 07:42 13,3 C 13,3 C 11,7 C 92 % 0 lf 1010,2 hPa 0,0 l/m 0 min 0 min 0 W/m 43,9 km/h (6 Bft) 97,87 %
15.11.2015 07:44 13,3 C 13,3 C 11,7 C 92 % 0 lf 1010,2 hPa 0,0 l/m 0 min 0 min 0 W/m 46,0 km/h (6 Bft) 97,87 %
15.11.2015 07:46 13,3 C 13,3 C 11,7 C 92 % 0 lf 1010,2 hPa 0,0 l/m 0 min 0 min 0 W/m 48,1 km/h (6 Bft) 95,74 %
15.11.2015 07:48 13,3 C 13,9 C 11,7 C 92 % 0 lf 1010,2 hPa 0,0 l/m 0 min 0 min 0 W/m 50,2 km/h (7 Bft) 97,87 %
15.11.2015 07:50 13,4 C 13,9 C 11,7 C 92 % 0 lf 1010,2 hPa 0,0 l/m 0 min 0 min 0 W/m 41,8 km/h (6 Bft) 95,92 %
15.11.2015 07:52 13,4 C 13,9 C 11,7 C 92 % 0 lf 1010,1 hPa 0,0 l/m 0 min 0 min 0 W/m 46,0 km/h (6 Bft) 97,14 %
15.11.2015 07:54 13,4 C 13,9 C 11,7 C 92 % 0 lf 1010,2 hPa 0,0 l/m 0 min 0 min 0 W/m 56,5 km/h (7 Bft) 92,98 %
15.11.2015 07:56 13,4 C 13,9 C 11,7 C 92 % 0 lf 1010,0 hPa 0,0 l/m 0 min 0 min 0 W/m 43,9 km/h (6 Bft) 95,74 %
15.11.2015 07:58 13,4 C 13,9 C 11,7 C 92 % 0 lf 1010,0 hPa 0,0 l/m 0 min 0 min 0 W/m 46,0 km/h (6 Bft) 97,87 %
15.11.2015 08:00 13,4 C 13,9 C 11,7 C 92 % 0 lf 1010,1 hPa 0,0 l/m 0 min 0 min 0 W/m 48,1 km/h (6 Bft) 100,00 %
15.11.2015 08:02 13,5 C 13,9 C 11,7 C 92 % 0 lf 1010,1 hPa 0,0 l/m 0 min 0 min 0 W/m 35,6 km/h (5 Bft) 94,92 %
15.11.2015 08:04 13,4 C 13,9 C 11,7 C 91 % 0 lf 1010,1 hPa 0,0 l/m 0 min 0 min 0 W/m 35,6 km/h (5 Bft) 94,29 %
15.11.2015 08:06 13,5 C 13,9 C 11,7 C 91 % 0 lf 1010,2 hPa 0,0 l/m 0 min 0 min 0 W/m 50,2 km/h (7 Bft) 96,23 %
15.11.2015 08:08 13,5 C 13,9 C 11,7 C 91 % 0 lf 1010,1 hPa 0,0 l/m 0 min 0 min 5 W/m 54,4 km/h (7 Bft) 97,87 %
15.11.2015 08:10 13,5 C 13,9 C 11,7 C 91 % 0 lf 1010,2 hPa 0,0 l/m 0 min 0 min 7 W/m 33,5 km/h (5 Bft) 98,00 %
15.11.2015 08:12 13,5 C 13,9 C 11,7 C 91 % 0 lf 1010,2 hPa 0,0 l/m 0 min 0 min 7 W/m 56,5 km/h (7 Bft) 97,96 %
15.11.2015 08:14 13,5 C 13,9 C 11,7 C 91 % 0 lf 1010,4 hPa 0,0 l/m 0 min 0 min 8 W/m 54,4 km/h (7 Bft) 97,14 %
15.11.2015 08:16 13,6 C 13,9 C 11,7 C 91 % 0 lf 1010,3 hPa 0,0 l/m 0 min 0 min 9 W/m 39,7 km/h (6 Bft) 96,30 %
15.11.2015 08:18 13,6 C 13,9 C 11,7 C 91 % 0 lf 1010,4 hPa 0,0 l/m 0 min 0 min 8 W/m 58,6 km/h (7 Bft) 95,92 %
15.11.2015 08:20 13,6 C 13,9 C 11,7 C 91 % 0 lf 1010,3 hPa 0,0 l/m 0 min 0 min 8 W/m 50,2 km/h (7 Bft) 97,96 %
15.11.2015 08:22 13,6 C 13,9 C 11,7 C 91 % 0 lf 1010,3 hPa 0,0 l/m 0 min 0 min 11 W/m 50,2 km/h (7 Bft) 100,00 %
15.11.2015 08:24 13,6 C 13,9 C 11,7 C 91 % 0 lf 1010,3 hPa 0,0 l/m 0 min 0 min 10 W/m 33,5 km/h (5 Bft) 96,55 %
15.11.2015 08:26 13,6 C 13,9 C 11,7 C 91 % 0 lf 1010,3 hPa 0,0 l/m 0 min 0 min 10 W/m 50,2 km/h (7 Bft) 97,22 %
15.11.2015 08:28 13,6 C 13,9 C 11,7 C 91 % 0 lf 1010,4 hPa 0,0 l/m 0 min 0 min 12 W/m 41,8 km/h (6 Bft) 98,25 %
15.11.2015 08:30 13,7 C 13,9 C 12,2 C 91 % 0 lf 1010,4 hPa 0,0 l/m 0 min 0 min 11 W/m 48,1 km/h (6 Bft) 97,30 %
15.11.2015 08:32 13,7 C 13,9 C 12,2 C 91 % 0 lf 1010,4 hPa 0,0 l/m 0 min 0 min 12 W/m 43,9 km/h (6 Bft) 98,28 %
15.11.2015 08:34 13,7 C 13,9 C 12,2 C 91 % 0 lf 1010,3 hPa 0,0 l/m 0 min 0 min 12 W/m 48,1 km/h (6 Bft) 97,87 %
15.11.2015 08:36 13,7 C 13,9 C 12,2 C 91 % 0 lf 1010,4 hPa 0,0 l/m 0 min 0 min 12 W/m 43,9 km/h (6 Bft) 97,14 %
15.11.2015 08:38 13,7 C 13,9 C 12,2 C 91 % 0 lf 1010,5 hPa 0,0 l/m 0 min 0 min 13 W/m 58,6 km/h (7 Bft) 97,87 %
15.11.2015 08:40 13,7 C 13,9 C 12,2 C 90 % 0 lf 1010,4 hPa 0,0 l/m 0 min 0 min 16 W/m 48,1 km/h (6 Bft) 98,18 %
15.11.2015 08:42 13,7 C 13,9 C 12,2 C 90 % 0 lf 1010,4 hPa 0,0 l/m 0 min 0 min 18 W/m 39,7 km/h (6 Bft) 96,00 %
15.11.2015 08:44 13,8 C 13,9 C 12,2 C 90 % 0 lf 1010,4 hPa 0,0 l/m 0 min 0 min 20 W/m 39,7 km/h (6 Bft) 97,14 %
15.11.2015 08:46 13,8 C 13,9 C 12,2 C 90 % 0 lf 1010,5 hPa 0,0 l/m 0 min 0 min 21 W/m 41,8 km/h (6 Bft) 95,74 %
15.11.2015 08:48 13,8 C 13,9 C 12,2 C 90 % 0 lf 1010,4 hPa 0,0 l/m 0 min 0 min 23 W/m 46,0 km/h (6 Bft) 94,64 %
15.11.2015 08:50 13,8 C 13,9 C 12,2 C 90 % 0 lf 1010,4 hPa 0,0 l/m 0 min 0 min 25 W/m 41,8 km/h (6 Bft) 95,74 %
15.11.2015 08:52 13,8 C 13,9 C 12,2 C 90 % 0 lf 1010,4 hPa 0,0 l/m 0 min 0 min 27 W/m 41,8 km/h (6 Bft) 97,96 %
15.11.2015 08:54 13,8 C 13,9 C 12,2 C 90 % 0 lf 1010,3 hPa 0,0 l/m 0 min 0 min 26 W/m 52,3 km/h (7 Bft) 91,67 %
15.11.2015 08:56 13,8 C 14,4 C 12,2 C 90 % 0 lf 1010,3 hPa 0,0 l/m 0 min 0 min 28 W/m 37,7 km/h (5 Bft) 97,83 %
15.11.2015 08:58 13,8 C 14,4 C 12,2 C 90 % 0 lf 1010,3 hPa 0,0 l/m 0 min 0 min 27 W/m 41,8 km/h (6 Bft) 96,43 %
15.11.2015 09:00 13,8 C 14,4 C 12,2 C 90 % 0 lf 1010,3 hPa 0,0 l/m 0 min 0 min 32 W/m 46,0 km/h (6 Bft) 97,87 %
15.11.2015 09:02 13,9 C 14,4 C 12,2 C 90 % 0 lf 1010,4 hPa 0,0 l/m 0 min 0 min 31 W/m 41,8 km/h (6 Bft) 91,84 %
15.11.2015 09:04 13,9 C 14,4 C 12,2 C 90 % 0 lf 1010,4 hPa 0,0 l/m 0 min 0 min 34 W/m 50,2 km/h (7 Bft) 95,74 %
15.11.2015 09:06 13,9 C 14,4 C 12,8 C 90 % 0 lf 1010,3 hPa 0,0 l/m 0 min 0 min 37 W/m 46,0 km/h (6 Bft) 94,44 %
15.11.2015 09:08 13,9 C 14,4 C 12,8 C 90 % 0 lf 1010,4 hPa 0,0 l/m 0 min 0 min 42 W/m 52,3 km/h (7 Bft) 91,30 %
15.11.2015 09:10 13,9 C 14,4 C 12,8 C 90 % 0 lf 1010,3 hPa 0,0 l/m 0 min 0 min 39 W/m 29,3 km/h (5 Bft) 95,74 %
15.11.2015 09:12 13,9 C 14,4 C 12,8 C 90 % 0 lf 1010,4 hPa 0,0 l/m 0 min 0 min 38 W/m 48,1 km/h (6 Bft) 93,62 %
15.11.2015 09:14 14,0 C 14,4 C 12,8 C 90 % 0 lf 1010,3 hPa 0,0 l/m 0 min 0 min 43 W/m 43,9 km/h (6 Bft) 93,62 %
15.11.2015 09:16 14,0 C 14,4 C 12,8 C 90 % 0 lf 1010,3 hPa 0,0 l/m 0 min 0 min 45 W/m 39,7 km/h (6 Bft) 92,73 %
15.11.2015 09:18 14,1 C 14,4 C 12,8 C 89 % 0 lf 1010,4 hPa 0,0 l/m 0 min 0 min 44 W/m 37,7 km/h (5 Bft) 94,00 %
15.11.2015 09:20 14,1 C 14,4 C 12,8 C 89 % 0 lf 1010,4 hPa 0,0 l/m 0 min 0 min 42 W/m 43,9 km/h (6 Bft) 91,43 %
15.11.2015 09:22 14,1 C 14,4 C 12,8 C 89 % 0 lf 1010,5 hPa 0,0 l/m 0 min 0 min 46 W/m 37,7 km/h (5 Bft) 93,62 %
15.11.2015 09:24 14,1 C 14,4 C 12,8 C 89 % 0 lf 1010,4 hPa 0,0 l/m 0 min 0 min 53 W/m 41,8 km/h (6 Bft) 93,62 %
15.11.2015 09:26 14,2 C 14,4 C 12,8 C 89 % 0 lf 1010,6 hPa 0,0 l/m 0 min 0 min 57 W/m 50,2 km/h (7 Bft) 95,74 %
15.11.2015 09:28 14,2 C 14,4 C 12,8 C 89 % 0 lf 1010,5 hPa 0,0 l/m 0 min 0 min 64 W/m 43,9 km/h (6 Bft) 90,91 %
15.11.2015 09:30 14,2 C 14,4 C 12,8 C 89 % 0 lf 1010,4 hPa 0,0 l/m 0 min 0 min 73 W/m 46,0 km/h (6 Bft) 96,00 %
15.11.2015 09:32 14,2 C 14,4 C 12,8 C 89 % 0 lf 1010,4 hPa 0,0 l/m 0 min 0 min 75 W/m 41,8 km/h (6 Bft) 97,14 %
15.11.2015 09:34 14,2 C 15,0 C 12,8 C 89 % 0 lf 1010,4 hPa 0,0 l/m 0 min 0 min 72 W/m 37,7 km/h (5 Bft) 95,74 %
15.11.2015 09:36 14,2 C 15,0 C 12,8 C 89 % 0 lf 1010,4 hPa 0,0 l/m 0 min 0 min 72 W/m 52,3 km/h (7 Bft) 96,43 %
15.11.2015 09:38 14,2 C 15,0 C 12,8 C 89 % 0 lf 1010,4 hPa 0,0 l/m 0 min 0 min 72 W/m 46,0 km/h (6 Bft) 93,88 %
15.11.2015 09:40 14,2 C 15,0 C 12,8 C 89 % 0 lf 1010,4 hPa 0,0 l/m 0 min 0 min 71 W/m 39,7 km/h (6 Bft) 91,67 %
15.11.2015 09:42 14,2 C 15,0 C 12,8 C 89 % 0 lf 1010,4 hPa 0,0 l/m 0 min 0 min 63 W/m 48,1 km/h (6 Bft) 97,83 %
15.11.2015 09:44 14,2 C 15,0 C 12,8 C 89 % 0 lf 1010,4 hPa 0,0 l/m 0 min 0 min 65 W/m 39,7 km/h (6 Bft) 98,21 %
15.11.2015 09:46 14,2 C 15,0 C 12,8 C 89 % 0 lf 1010,4 hPa 0,0 l/m 0 min 0 min 59 W/m 58,6 km/h (7 Bft) 96,00 %
15.11.2015 09:48 14,2 C 15,0 C 12,8 C 89 % 0 lf 1010,4 hPa 0,0 l/m 0 min 0 min 63 W/m 43,9 km/h (6 Bft) 94,29 %
15.11.2015 09:50 14,2 C 15,0 C 12,8 C 89 % 0 lf 1010,4 hPa 0,0 l/m 0 min 0 min 67 W/m 43,9 km/h (6 Bft) 94,34 %
15.11.2015 09:52 14,2 C 15,0 C 12,8 C 88 % 0 lf 1010,5 hPa 0,0 l/m 0 min 0 min 71 W/m 50,2 km/h (7 Bft) 97,96 %
15.11.2015 09:54 14,3 C 15,0 C 13,3 C 88 % 0 lf 1010,4 hPa 0,0 l/m 0 min 0 min 75 W/m 56,5 km/h (7 Bft) 98,00 %
15.11.2015 09:56 14,3 C 15,0 C 13,3 C 88 % 0 lf 1010,4 hPa 0,0 l/m 0 min 0 min 77 W/m 48,1 km/h (6 Bft) 94,29 %
15.11.2015 09:58 14,3 C 15,0 C 13,3 C 88 % 0 lf 1010,4 hPa 0,0 l/m 0 min 0 min 91 W/m 54,4 km/h (7 Bft) 97,87 %
15.11.2015 10:00 14,4 C 15,0 C 13,3 C 88 % 0 lf 1010,5 hPa 0,0 l/m 0 min 0 min 86 W/m 43,9 km/h (6 Bft) 97,87 %
15.11.2015 10:02 14,4 C 15,0 C 13,3 C 88 % 0 lf 1010,5 hPa 0,0 l/m 0 min 0 min 83 W/m 54,4 km/h (7 Bft) 98,18 %
15.11.2015 10:04 14,4 C 15,0 C 13,3 C 88 % 0 lf 1010,5 hPa 0,0 l/m 0 min 0 min 84 W/m 52,3 km/h (7 Bft) 96,00 %
15.11.2015 10:06 14,5 C 15,6 C 13,3 C 88 % 0 lf 1010,5 hPa 0,0 l/m 0 min 0 min 91 W/m 46,0 km/h (6 Bft) 97,14 %
15.11.2015 10:08 14,5 C 15,6 C 13,3 C 87 % 0 lf 1010,5 hPa 0,0 l/m 0 min 0 min 82 W/m 46,0 km/h (6 Bft) 97,87 %
15.11.2015 10:10 14,6 C 15,6 C 13,3 C 87 % 0 lf 1010,5 hPa 0,0 l/m 0 min 0 min 76 W/m 41,8 km/h (6 Bft) 95,74 %
15.11.2015 10:12 14,6 C 15,6 C 13,3 C 87 % 0 lf 1010,4 hPa 0,0 l/m 0 min 0 min 97 W/m 35,6 km/h (5 Bft) 96,43 %
15.11.2015 10:14 14,6 C 15,6 C 13,3 C 87 % 0 lf 1010,4 hPa 0,0 l/m 0 min 0 min 79 W/m 39,7 km/h (6 Bft) 97,96 %
15.11.2015 10:16 14,6 C 15,6 C 13,3 C 87 % 0 lf 1010,5 hPa 0,0 l/m 0 min 0 min 90 W/m 39,7 km/h (6 Bft) 100,00 %
15.11.2015 10:18 14,6 C 15,6 C 13,3 C 87 % 0 lf 1010,5 hPa 0,0 l/m 0 min 0 min 98 W/m 33,5 km/h (5 Bft) 100,00 %
15.11.2015 10:20 14,7 C 15,6 C 13,3 C 87 % 0 lf 1010,4 hPa 0,0 l/m 0 min 0 min 89 W/m 41,8 km/h (6 Bft) 98,21 %
15.11.2015 10:22 14,7 C 15,6 C 13,3 C 87 % 0 lf 1010,6 hPa 0,0 l/m 0 min 0 min 80 W/m 54,4 km/h (7 Bft) 98,00 %
15.11.2015 10:24 14,7 C 15,6 C 13,3 C 87 % 0 lf 1010,5 hPa 0,0 l/m 0 min 0 min 84 W/m 33,5 km/h (5 Bft) 94,29 %
15.11.2015 10:26 14,7 C 15,6 C 13,3 C 87 % 0 lf 1010,5 hPa 0,0 l/m 0 min 0 min 78 W/m 52,3 km/h (7 Bft) 95,74 %
15.11.2015 10:28 14,7 C 15,6 C 13,3 C 87 % 0 lf 1010,5 hPa 0,0 l/m 0 min 0 min 87 W/m 46,0 km/h (6 Bft) 93,62 %
15.11.2015 10:30 14,7 C 15,6 C 13,3 C 87 % 0 lf 1010,4 hPa 0,0 l/m 0 min 0 min 105 W/m 46,0 km/h (6 Bft) 98,18 %
15.11.2015 10:32 14,8 C 15,6 C 13,9 C 87 % 0 lf 1010,4 hPa 0,0 l/m 0 min 0 min 100 W/m 29,3 km/h (5 Bft) 97,87 %
15.11.2015 10:34 14,8 C 15,6 C 13,3 C 87 % 0 lf 1010,4 hPa 0,0 l/m 0 min 0 min 82 W/m 46,0 km/h (6 Bft) 98,00 %
15.11.2015 10:36 14,8 C 15,6 C 13,3 C 87 % 0 lf 1010,4 hPa 0,0 l/m 0 min 0 min 99 W/m 37,7 km/h (5 Bft) 95,65 %
15.11.2015 10:38 14,8 C 15,6 C 13,9 C 87 % 0 lf 1010,4 hPa 0,0 l/m 0 min 0 min 101 W/m 31,4 km/h (5 Bft) 95,74 %
15.11.2015 10:40 14,8 C 15,6 C 13,9 C 87 % 0 lf 1010,3 hPa 0,0 l/m 0 min 0 min 105 W/m 43,9 km/h (6 Bft) 95,74 %
15.11.2015 10:42 14,9 C 15,6 C 13,9 C 86 % 0 lf 1010,3 hPa 0,0 l/m 0 min 0 min 101 W/m 48,1 km/h (6 Bft) 94,29 %
15.11.2015 10:44 14,9 C 16,1 C 13,9 C 86 % 0 lf 1010,3 hPa 0,0 l/m 0 min 0 min 117 W/m 41,8 km/h (6 Bft) 97,87 %
15.11.2015 10:46 14,9 C 15,6 C 13,9 C 86 % 0 lf 1010,3 hPa 0,0 l/m 0 min 0 min 101 W/m 48,1 km/h (6 Bft) 97,87 %
15.11.2015 10:48 14,9 C 15,6 C 13,9 C 86 % 0 lf 1010,3 hPa 0,0 l/m 0 min 0 min 122 W/m 52,3 km/h (7 Bft) 94,64 %
15.11.2015 10:50 15,0 C 16,1 C 13,9 C 86 % 0 lf 1010,2 hPa 0,0 l/m 0 min 0 min 118 W/m 52,3 km/h (7 Bft) 93,88 %
15.11.2015 10:52 15,1 C 16,1 C 13,9 C 86 % 0 lf 1010,1 hPa 0,0 l/m 0 min 0 min 108 W/m 43,9 km/h (6 Bft) 97,14 %
15.11.2015 10:54 15,1 C 16,1 C 13,9 C 86 % 0 lf 1010,2 hPa 0,0 l/m 0 min 0 min 119 W/m 46,0 km/h (6 Bft) 97,87 %
15.11.2015 10:56 15,1 C 16,1 C 13,9 C 86 % 0 lf 1010,2 hPa 0,0 l/m 0 min 0 min 152 W/m 46,0 km/h (6 Bft) 98,21 %
15.11.2015 10:58 15,2 C 16,1 C 14,4 C 85 % 0 lf 1010,2 hPa 0,0 l/m 2 min 0 min 177 W/m 46,0 km/h (6 Bft) 92,00 %
15.11.2015 11:00 15,2 C 16,7 C 14,4 C 85 % 0 lf 1010,3 hPa 0,0 l/m 2 min 0 min 199 W/m 41,8 km/h (6 Bft) 97,14 %
15.11.2015 11:02 15,3 C 16,7 C 14,4 C 85 % 0 lf 1010,3 hPa 0,0 l/m 2 min 0 min 218 W/m 41,8 km/h (6 Bft) 95,74 %
15.11.2015 11:04 15,3 C 16,7 C 14,4 C 85 % 0 lf 1010,4 hPa 0,0 l/m 2 min 0 min 174 W/m 41,8 km/h (6 Bft) 95,74 %
15.11.2015 11:06 15,3 C 16,7 C 14,4 C 85 % 0 lf 1010,2 hPa 0,0 l/m 2 min 0 min 166 W/m 50,2 km/h (7 Bft) 93,48 %
15.11.2015 11:08 15,4 C 16,7 C 14,4 C 84 % 0 lf 1010,3 hPa 0,0 l/m 2 min 0 min 170 W/m 54,4 km/h (7 Bft) 96,43 %
15.11.2015 11:10 15,4 C 16,7 C 14,4 C 84 % 0 lf 1010,2 hPa 0,0 l/m 0 min 0 min 158 W/m 54,4 km/h (7 Bft) 92,00 %
15.11.2015 11:12 15,5 C 17,2 C 14,4 C 84 % 0 lf 1010,1 hPa 0,0 l/m 2 min 0 min 207 W/m 54,4 km/h (7 Bft) 95,65 %
15.11.2015 11:14 15,5 C 16,7 C 14,4 C 84 % 0 lf 1010,1 hPa 0,0 l/m 0 min 0 min 160 W/m 54,4 km/h (7 Bft) 97,22 %
15.11.2015 11:16 15,6 C 17,2 C 14,4 C 84 % 0 lf 1010,2 hPa 0,0 l/m 2 min 0 min 202 W/m 48,1 km/h (6 Bft) 93,62 %
15.11.2015 11:18 15,6 C 17,2 C 14,4 C 84 % 0 lf 1010,2 hPa 0,0 l/m 2 min 0 min 190 W/m 50,2 km/h (7 Bft) 98,18 %
15.11.2015 11:20 15,6 C 17,2 C 14,4 C 84 % 0 lf 1010,2 hPa 0,0 l/m 2 min 0 min 226 W/m 52,3 km/h (7 Bft) 96,00 %
15.11.2015 11:22 15,7 C 17,2 C 14,4 C 83 % 0 lf 1010,1 hPa 0,0 l/m 2 min 0 min 238 W/m 54,4 km/h (7 Bft) 97,37 %
15.11.2015 11:24 15,7 C 17,2 C 14,4 C 83 % 0 lf 1010,1 hPa 0,0 l/m 2 min 0 min 192 W/m 48,1 km/h (6 Bft) 97,87 %
15.11.2015 11:26 15,7 C 16,7 C 14,4 C 83 % 0 lf 1010,2 hPa 0,0 l/m 2 min 0 min 178 W/m 46,0 km/h (6 Bft) 95,92 %
15.11.2015 11:28 15,7 C 16,7 C 14,4 C 83 % 0 lf 1010,1 hPa 0,0 l/m 0 min 0 min 133 W/m 62,8 km/h (8 Bft) 97,87 %
15.11.2015 11:30 15,7 C 16,7 C 14,4 C 83 % 0 lf 1010,1 hPa 0,0 l/m 2 min 0 min 220 W/m 52,3 km/h (7 Bft) 97,87 %
15.11.2015 11:32 15,7 C 17,8 C 14,4 C 83 % 0 lf 1010,1 hPa 0,0 l/m 2 min 0 min 186 W/m 62,8 km/h (8 Bft) 95,45 %
15.11.2015 11:34 15,8 C 17,2 C 14,4 C 83 % 0 lf 1010,2 hPa 0,0 l/m 0 min 0 min 159 W/m 50,2 km/h (7 Bft) 100,00 %
15.11.2015 11:36 15,8 C 17,2 C 15,0 C 83 % 0 lf 1010,1 hPa 0,0 l/m 2 min 0 min 178 W/m 60,7 km/h (7 Bft) 97,87 %
15.11.2015 11:38 15,8 C 16,7 C 14,4 C 83 % 0 lf 1010,2 hPa 0,0 l/m 0 min 0 min 137 W/m 62,8 km/h (8 Bft) 100,00 %
15.11.2015 11:40 15,8 C 16,7 C 14,4 C 83 % 0 lf 1010,2 hPa 0,0 l/m 0 min 0 min 167 W/m 52,3 km/h (7 Bft) 100,00 %
15.11.2015 11:42 15,8 C 16,7 C 14,4 C 83 % 0 lf 1010,2 hPa 0,0 l/m 0 min 0 min 153 W/m 54,4 km/h (7 Bft) 100,00 %
15.11.2015 11:44 15,9 C 16,7 C 15,0 C 83 % 0 lf 1010,2 hPa 0,0 l/m 0 min 0 min 163 W/m 52,3 km/h (7 Bft) 100,00 %
15.11.2015 11:46 15,9 C 16,7 C 15,0 C 83 % 0 lf 1010,4 hPa 0,0 l/m 0 min 0 min 158 W/m 50,2 km/h (7 Bft) 100,00 %
15.11.2015 11:48 15,9 C 16,7 C 15,0 C 82 % 0 lf 1010,3 hPa 0,0 l/m 0 min 0 min 160 W/m 54,4 km/h (7 Bft) 95,45 %
15.11.2015 11:50 15,9 C 17,2 C 15,0 C 82 % 0 lf 1010,3 hPa 0,0 l/m 2 min 0 min 275 W/m 50,2 km/h (7 Bft) 100,00 %
15.11.2015 11:52 15,9 C 17,8 C 15,0 C 83 % 0 lf 1010,3 hPa 0,0 l/m 2 min 0 min 241 W/m 39,7 km/h (6 Bft) 100,00 %
15.11.2015 11:54 16,0 C 17,8 C 15,0 C 83 % 0 lf 1010,4 hPa 0,0 l/m 2 min 0 min 199 W/m 54,4 km/h (7 Bft) 97,87 %
15.11.2015 11:56 16,0 C 17,8 C 15,6 C 83 % 0 lf 1010,2 hPa 0,0 l/m 2 min 0 min 245 W/m 50,2 km/h (7 Bft) 100,00 %
15.11.2015 11:58 16,1 C 17,8 C 15,6 C 82 % 0 lf 1010,3 hPa 0,0 l/m 2 min 0 min 271 W/m 52,3 km/h (7 Bft) 97,87 %
15.11.2015 12:00 16,1 C 17,8 C 15,6 C 82 % 0 lf 1010,3 hPa 0,0 l/m 2 min 0 min 233 W/m 62,8 km/h (8 Bft) 100,00 %
15.11.2015 12:02 16,2 C 17,2 C 15,0 C 82 % 0 lf 1010,5 hPa 0,0 l/m 2 min 0 min 190 W/m 43,9 km/h (6 Bft) 97,22 %
15.11.2015 12:04 16,2 C 17,2 C 15,0 C 82 % 0 lf 1010,4 hPa 0,0 l/m 0 min 0 min 153 W/m 60,7 km/h (7 Bft) 94,34 %
15.11.2015 12:06 16,2 C 16,7 C 15,0 C 82 % 0 lf 1010,4 hPa 0,0 l/m 0 min 0 min 112 W/m 73,2 km/h (8 Bft) 88,00 %
15.11.2015 12:08 16,2 C 16,7 C 15,0 C 82 % 0 lf 1010,3 hPa 0,0 l/m 0 min 0 min 151 W/m 60,7 km/h (7 Bft) 95,92 %
15.11.2015 12:10 16,2 C 16,7 C 15,0 C 82 % 0 lf 1010,3 hPa 0,0 l/m 0 min 0 min 166 W/m 39,7 km/h (6 Bft) 95,74 %
15.11.2015 12:12 16,2 C 16,7 C 15,0 C 82 % 0 lf 1010,3 hPa 0,0 l/m 0 min 0 min 134 W/m 54,4 km/h (7 Bft) 92,68 %
15.11.2015 12:14 16,1 C 17,2 C 15,0 C 82 % 0 lf 1010,4 hPa 0,0 l/m 0 min 0 min 165 W/m 50,2 km/h (7 Bft) 96,00 %
15.11.2015 12:16 16,2 C 17,2 C 15,0 C 82 % 0 lf 1010,4 hPa 0,0 l/m 2 min 0 min 196 W/m 52,3 km/h (7 Bft) 93,62 %
15.11.2015 12:18 16,2 C 17,2 C 15,0 C 82 % 0 lf 1010,4 hPa 0,0 l/m 2 min 0 min 178 W/m 54,4 km/h (7 Bft) 93,88 %
15.11.2015 12:20 16,2 C 17,2 C 15,0 C 82 % 0 lf 1010,4 hPa 0,0 l/m 2 min 0 min 183 W/m 41,8 km/h (6 Bft) 95,74 %
15.11.2015 12:22 16,2 C 17,2 C 15,0 C 82 % 0 lf 1010,4 hPa 0,0 l/m 0 min 0 min 139 W/m 41,8 km/h (6 Bft) 91,49 %
15.11.2015 12:24 16,2 C 17,2 C 15,0 C 82 % 0 lf 1010,3 hPa 0,0 l/m 0 min 0 min 126 W/m 37,7 km/h (5 Bft) 92,68 %
15.11.2015 12:26 16,2 C 17,2 C 15,0 C 82 % 0 lf 1010,4 hPa 0,0 l/m 0 min 0 min 132 W/m 50,2 km/h (7 Bft) 96,00 %
15.11.2015 12:28 16,2 C 16,7 C 15,0 C 82 % 1 lf 1010,3 hPa 0,0 l/m 0 min 0 min 151 W/m 46,0 km/h (6 Bft) 93,62 %
15.11.2015 12:30 16,2 C 16,7 C 15,0 C 82 % 0 lf 1010,3 hPa 0,0 l/m 0 min 0 min 160 W/m 66,9 km/h (8 Bft) 95,92 %
15.11.2015 12:32 16,2 C 16,7 C 15,0 C 82 % 2 lf 1010,2 hPa 0,0 l/m 0 min 0 min 140 W/m 37,7 km/h (5 Bft) 93,62 %
15.11.2015 12:34 16,2 C 16,7 C 15,0 C 82 % 3 lf 1010,2 hPa 0,0 l/m 0 min 2 min 115 W/m 56,5 km/h (7 Bft) 94,29 %
15.11.2015 12:36 16,2 C 16,1 C 14,4 C 82 % 13 lf 1010,2 hPa 0,0 l/m 0 min 2 min 91 W/m 43,9 km/h (6 Bft) 96,23 %
15.11.2015 12:38 16,1 C 16,1 C 13,9 C 82 % 14 lf 1010,3 hPa 0,0 l/m 0 min 2 min 79 W/m 41,8 km/h (6 Bft) 88,00 %
15.11.2015 12:40 16,1 C 15,6 C 13,9 C 83 % 15 lf 1010,2 hPa 0,0 l/m 0 min 2 min 80 W/m 54,4 km/h (7 Bft) 93,88 %
15.11.2015 12:42 16,0 C 15,6 C 13,3 C 83 % 15 lf 1010,2 hPa 0,0 l/m 0 min 2 min 88 W/m 48,1 km/h (6 Bft) 95,74 %
15.11.2015 12:44 15,9 C 15,6 C 13,3 C 83 % 15 lf 1010,2 hPa 0,0 l/m 0 min 2 min 96 W/m 54,4 km/h (7 Bft) 95,24 %
15.11.2015 12:46 15,9 C 15,6 C 13,9 C 83 % 12 lf 1010,2 hPa 0,0 l/m 0 min 2 min 133 W/m 50,2 km/h (7 Bft) 93,62 %
15.11.2015 12:48 15,8 C 16,1 C 13,9 C 84 % 3 lf 1010,2 hPa 0,0 l/m 0 min 2 min 162 W/m 43,9 km/h (6 Bft) 95,92 %
15.11.2015 12:50 15,8 C 16,1 C 14,4 C 84 % 0 lf 1010,2 hPa 0,0 l/m 0 min 2 min 167 W/m 50,2 km/h (7 Bft) 95,74 %
15.11.2015 12:52 15,8 C 16,1 C 14,4 C 84 % 0 lf 1010,3 hPa 0,0 l/m 0 min 2 min 163 W/m 33,5 km/h (5 Bft) 97,87 %
15.11.2015 12:54 15,8 C 16,7 C 15,0 C 84 % 0 lf 1010,3 hPa 0,0 l/m 0 min 0 min 145 W/m 43,9 km/h (6 Bft) 95,92 %
15.11.2015 12:56 15,8 C 16,7 C 14,4 C 84 % 0 lf 1010,2 hPa 0,0 l/m 0 min 0 min 124 W/m 46,0 km/h (6 Bft) 95,74 %
15.11.2015 12:58 15,8 C 16,7 C 14,4 C 84 % 1 lf 1010,3 hPa 0,0 l/m 0 min 2 min 123 W/m 35,6 km/h (5 Bft) 89,36 %
15.11.2015 13:00 15,8 C 16,7 C 14,4 C 84 % 2 lf 1010,3 hPa 0,0 l/m 0 min 0 min 109 W/m 31,4 km/h (5 Bft) 97,56 %
15.11.2015 13:02 15,8 C 16,7 C 14,4 C 84 % 0 lf 1010,3 hPa 0,0 l/m 0 min 2 min 111 W/m 48,1 km/h (6 Bft) 96,00 %
15.11.2015 13:04 15,8 C 16,7 C 14,4 C 84 % 0 lf 1010,2 hPa 0,0 l/m 0 min 2 min 121 W/m 43,9 km/h (6 Bft) 93,88 %
15.11.2015 13:06 15,8 C 16,7 C 14,4 C 84 % 0 lf 1010,2 hPa 0,0 l/m 0 min 0 min 136 W/m 52,3 km/h (7 Bft) 100,00 %
15.11.2015 13:08 15,8 C 16,7 C 14,4 C 84 % 2 lf 1010,2 hPa 0,0 l/m 0 min 2 min 139 W/m 48,1 km/h (6 Bft) 90,48 %
15.11.2015 13:10 15,8 C 16,7 C 14,4 C 84 % 0 lf 1010,2 hPa 0,0 l/m 0 min 0 min 122 W/m 46,0 km/h (6 Bft) 95,92 %
15.11.2015 13:12 15,8 C 16,1 C 14,4 C 84 % 4 lf 1010,2 hPa 0,0 l/m 0 min 0 min 118 W/m 46,0 km/h (6 Bft) 93,88 %
15.11.2015 13:14 15,8 C 15,6 C 13,3 C 84 % 15 lf 1010,2 hPa 0,0 l/m 0 min 2 min 119 W/m 41,8 km/h (6 Bft) 95,74 %
15.11.2015 13:16 15,8 C 15,6 C 13,3 C 84 % 15 lf 1010,3 hPa 0,0 l/m 0 min 2 min 105 W/m 43,9 km/h (6 Bft) 95,24 %
15.11.2015 13:18 15,8 C 15,6 C 12,8 C 84 % 15 lf 1010,3 hPa 0,0 l/m 0 min 2 min 114 W/m 48,1 km/h (6 Bft) 96,00 %
15.11.2015 13:20 15,8 C 15,0 C 12,8 C 84 % 15 lf 1010,3 hPa 0,0 l/m 0 min 2 min 109 W/m 60,7 km/h (7 Bft) 93,88 %
15.11.2015 13:22 15,8 C 15,0 C 12,8 C 85 % 15 lf 1010,3 hPa 0,0 l/m 0 min 2 min 108 W/m 39,7 km/h (6 Bft) 97,83 %
15.11.2015 13:24 15,7 C 15,6 C 12,8 C 85 % 15 lf 1010,3 hPa 0,0 l/m 0 min 2 min 111 W/m 37,7 km/h (5 Bft) 100,00 %
15.11.2015 13:26 15,7 C 15,6 C 12,8 C 85 % 15 lf 1010,3 hPa 0,0 l/m 0 min 2 min 97 W/m 46,0 km/h (6 Bft) 98,00 %
15.11.2015 13:28 15,7 C 15,6 C 12,8 C 85 % 15 lf 1010,4 hPa 0,0 l/m 0 min 2 min 78 W/m 37,7 km/h (5 Bft) 93,88 %
15.11.2015 13:30 15,6 C 15,6 C 12,8 C 85 % 15 lf 1010,3 hPa 0,0 l/m 0 min 2 min 80 W/m 46,0 km/h (6 Bft) 93,62 %
15.11.2015 13:32 15,6 C 16,1 C 12,8 C 85 % 15 lf 1010,4 hPa 0,0 l/m 0 min 2 min 84 W/m 46,0 km/h (6 Bft) 95,24 %
15.11.2015 13:34 15,6 C 16,1 C 13,3 C 85 % 15 lf 1010,3 hPa 0,0 l/m 0 min 2 min 93 W/m 52,3 km/h (7 Bft) 93,88 %
15.11.2015 13:36 15,6 C 16,1 C 13,3 C 85 % 13 lf 1010,5 hPa 0,0 l/m 0 min 2 min 112 W/m 37,7 km/h (5 Bft) 97,96 %
15.11.2015 13:38 15,6 C 16,1 C 13,3 C 85 % 6 lf 1010,4 hPa 0,0 l/m 0 min 2 min 126 W/m 41,8 km/h (6 Bft) 93,62 %
15.11.2015 13:40 15,6 C 16,1 C 13,9 C 85 % 0 lf 1010,5 hPa 0,0 l/m 0 min 0 min 122 W/m 37,7 km/h (5 Bft) 97,62 %
15.11.2015 13:42 15,7 C 16,7 C 13,9 C 85 % 2 lf 1010,3 hPa 0,0 l/m 0 min 2 min 130 W/m 48,1 km/h (6 Bft) 98,00 %
15.11.2015 13:44 15,7 C 16,7 C 13,9 C 85 % 1 lf 1010,4 hPa 0,0 l/m 0 min 2 min 114 W/m 35,6 km/h (5 Bft) 95,92 %
15.11.2015 13:46 15,7 C 16,7 C 13,9 C 85 % 3 lf 1010,4 hPa 0,0 l/m 0 min 0 min 104 W/m 33,5 km/h (5 Bft) 97,83 %
15.11.2015 13:48 15,7 C 16,1 C 13,9 C 85 % 3 lf 1010,4 hPa 0,0 l/m 0 min 2 min 101 W/m 37,7 km/h (5 Bft) 95,24 %
15.11.2015 13:50 15,7 C 16,1 C 13,3 C 85 % 4 lf 1010,4 hPa 0,0 l/m 0 min 2 min 113 W/m 48,1 km/h (6 Bft) 96,08 %
15.11.2015 13:52 15,7 C 16,1 C 13,3 C 85 % 3 lf 1010,3 hPa 0,0 l/m 0 min 2 min 110 W/m 39,7 km/h (6 Bft) 97,92 %
15.11.2015 13:54 15,7 C 16,1 C 13,3 C 85 % 15 lf 1010,3 hPa 0,0 l/m 0 min 2 min 106 W/m 43,9 km/h (6 Bft) 97,14 %
15.11.2015 13:56 15,7 C 16,1 C 13,3 C 85 % 15 lf 1010,5 hPa 0,2 l/m 0 min 2 min 115 W/m 39,7 km/h (6 Bft) 98,31 %
15.11.2015 13:58 15,7 C 16,1 C 13,3 C 85 % 15 lf 1010,4 hPa 0,0 l/m 0 min 2 min 93 W/m 43,9 km/h (6 Bft) 94,29 %
15.11.2015 14:00 15,7 C 16,1 C 12,8 C 85 % 15 lf 1010,4 hPa 0,0 l/m 0 min 2 min 76 W/m 43,9 km/h (6 Bft) 96,55 %
15.11.2015 14:02 15,7 C 15,6 C 13,3 C 85 % 15 lf 1010,5 hPa 0,0 l/m 0 min 2 min 71 W/m 48,1 km/h (6 Bft) 100,00 %
15.11.2015 14:04 15,7 C 15,6 C 13,3 C 85 % 15 lf 1010,5 hPa 0,0 l/m 0 min 2 min 60 W/m 29,3 km/h (5 Bft) 96,43 %
15.11.2015 14:06 15,6 C 15,6 C 13,3 C 85 % 15 lf 1010,4 hPa 0,0 l/m 0 min 2 min 57 W/m 39,7 km/h (6 Bft) 98,00 %
15.11.2015 14:08 15,6 C 15,6 C 13,3 C 85 % 15 lf 1010,4 hPa 0,0 l/m 0 min 2 min 56 W/m 43,9 km/h (6 Bft) 97,14 %
15.11.2015 14:10 15,6 C 15,6 C 13,3 C 85 % 15 lf 1010,4 hPa 0,0 l/m 0 min 2 min 45 W/m 46,0 km/h (6 Bft) 98,18 %
15.11.2015 14:12 15,5 C 15,6 C 13,3 C 85 % 15 lf 1010,4 hPa 0,0 l/m 0 min 2 min 45 W/m 46,0 km/h (6 Bft) 96,00 %
15.11.2015 14:14 15,5 C 15,6 C 13,3 C 86 % 15 lf 1010,4 hPa 0,0 l/m 0 min 2 min 65 W/m 56,5 km/h (7 Bft) 97,87 %
15.11.2015 14:16 15,4 C 15,6 C 13,3 C 86 % 15 lf 1010,6 hPa 0,0 l/m 0 min 2 min 60 W/m 41,8 km/h (6 Bft) 100,00 %
15.11.2015 14:18 15,4 C 15,6 C 13,3 C 86 % 14 lf 1010,6 hPa 0,0 l/m 0 min 2 min 51 W/m 35,6 km/h (5 Bft) 100,00 %
15.11.2015 14:20 15,4 C 15,6 C 13,3 C 86 % 14 lf 1010,7 hPa 0,0 l/m 0 min 2 min 42 W/m 37,7 km/h (5 Bft) 97,96 %
15.11.2015 14:22 15,4 C 15,6 C 13,3 C 86 % 14 lf 1010,8 hPa 0,0 l/m 0 min 2 min 51 W/m 41,8 km/h (6 Bft) 98,00 %
15.11.2015 14:24 15,4 C 15,0 C 13,3 C 86 % 15 lf 1010,8 hPa 0,0 l/m 0 min 2 min 46 W/m 29,3 km/h (5 Bft) 100,00 %
15.11.2015 14:26 15,4 C 15,0 C 12,8 C 86 % 15 lf 1010,7 hPa 0,0 l/m 0 min 2 min 30 W/m 39,7 km/h (6 Bft) 100,00 %
15.11.2015 14:28 15,4 C 15,0 C 12,8 C 87 % 15 lf 1010,7 hPa 0,0 l/m 0 min 2 min 26 W/m 35,6 km/h (5 Bft) 98,21 %
15.11.2015 14:30 15,3 C 14,4 C 12,2 C 87 % 15 lf 1010,7 hPa 0,0 l/m 0 min 2 min 27 W/m 37,7 km/h (5 Bft) 97,96 %
15.11.2015 14:32 15,3 C 14,4 C 12,2 C 87 % 15 lf 1010,8 hPa 0,0 l/m 0 min 2 min 33 W/m 41,8 km/h (6 Bft) 100,00 %
15.11.2015 14:34 15,2 C 14,4 C 12,2 C 87 % 15 lf 1010,7 hPa 0,0 l/m 0 min 2 min 50 W/m 29,3 km/h (5 Bft) 94,59 %
15.11.2015 14:36 15,2 C 14,4 C 12,2 C 87 % 15 lf 1010,8 hPa 0,0 l/m 0 min 2 min 62 W/m 33,5 km/h (5 Bft) 100,00 %
15.11.2015 14:38 15,2 C 14,4 C 12,2 C 88 % 15 lf 1010,8 hPa 0,2 l/m 0 min 2 min 55 W/m 39,7 km/h (6 Bft) 100,00 %
15.11.2015 14:40 15,1 C 14,4 C 12,2 C 88 % 15 lf 1010,7 hPa 0,0 l/m 0 min 2 min 57 W/m 33,5 km/h (5 Bft) 100,00 %
15.11.2015 14:42 15,1 C 14,4 C 12,2 C 88 % 15 lf 1010,7 hPa 0,0 l/m 0 min 2 min 54 W/m 35,6 km/h (5 Bft) 100,00 %
15.11.2015 14:44 15,1 C 14,4 C 12,2 C 88 % 15 lf 1010,7 hPa 0,0 l/m 0 min 2 min 46 W/m 25,1 km/h (4 Bft) 100,00 %
15.11.2015 14:46 15,0 C 14,4 C 12,2 C 88 % 15 lf 1010,7 hPa 0,0 l/m 0 min 0 min 44 W/m 25,1 km/h (4 Bft) 100,00 %
15.11.2015 14:48 15,0 C 14,4 C 12,2 C 88 % 15 lf 1010,7 hPa 0,0 l/m 0 min 0 min 46 W/m 20,9 km/h (4 Bft) 97,87 %
15.11.2015 14:50 15,0 C 15,0 C 12,2 C 88 % 15 lf 1010,7 hPa 0,0 l/m 0 min 2 min 42 W/m 56,5 km/h (7 Bft) 100,00 %
15.11.2015 14:52 14,9 C 15,0 C 12,2 C 88 % 15 lf 1010,7 hPa 0,0 l/m 0 min 2 min 42 W/m 27,2 km/h (4 Bft) 97,87 %
15.11.2015 14:54 14,9 C 15,0 C 12,2 C 88 % 15 lf 1010,8 hPa 0,0 l/m 0 min 2 min 44 W/m 29,3 km/h (5 Bft) 97,83 %
15.11.2015 14:56 14,9 C 15,6 C 12,8 C 88 % 15 lf 1010,8 hPa 0,0 l/m 0 min 0 min 50 W/m 33,5 km/h (5 Bft) 97,87 %
15.11.2015 14:58 14,9 C 15,6 C 12,8 C 88 % 15 lf 1010,8 hPa 0,0 l/m 0 min 2 min 50 W/m 35,6 km/h (5 Bft) 96,00 %
15.11.2015 15:00 14,9 C 15,6 C 12,8 C 88 % 15 lf 1010,7 hPa 0,0 l/m 0 min 2 min 44 W/m 35,6 km/h (5 Bft) 89,19 %
15.11.2015 15:02 15,0 C 15,6 C 12,8 C 88 % 15 lf 1010,8 hPa 0,0 l/m 0 min 0 min 44 W/m 29,3 km/h (5 Bft) 95,74 %
15.11.2015 15:04 15,0 C 15,6 C 12,8 C 88 % 15 lf 1010,7 hPa 0,0 l/m 0 min 2 min 46 W/m 23,0 km/h (4 Bft) 96,30 %
15.11.2015 15:06 15,0 C 15,6 C 12,8 C 88 % 14 lf 1010,8 hPa 0,0 l/m 0 min 2 min 39 W/m 31,4 km/h (5 Bft) 93,88 %
15.11.2015 15:08 15,0 C 15,6 C 12,8 C 88 % 12 lf 1010,8 hPa 0,0 l/m 0 min 2 min 35 W/m 41,8 km/h (6 Bft) 94,74 %
15.11.2015 15:10 15,1 C 15,6 C 12,8 C 87 % 5 lf 1010,9 hPa 0,0 l/m 0 min 2 min 34 W/m 33,5 km/h (5 Bft) 95,65 %
15.11.2015 15:12 15,1 C 15,6 C 12,8 C 87 % 4 lf 1010,7 hPa 0,0 l/m 0 min 2 min 42 W/m 35,6 km/h (5 Bft) 90,74 %
15.11.2015 15:14 15,1 C 15,0 C 12,8 C 87 % 15 lf 1010,9 hPa 0,0 l/m 0 min 2 min 41 W/m 41,8 km/h (6 Bft) 93,62 %
15.11.2015 15:16 15,1 C 15,0 C 12,8 C 87 % 15 lf 1010,9 hPa 0,0 l/m 0 min 2 min 44 W/m 35,6 km/h (5 Bft) 93,88 %
15.11.2015 15:18 15,1 C 15,0 C 12,8 C 87 % 15 lf 1010,9 hPa 0,0 l/m 0 min 2 min 44 W/m 23,0 km/h (4 Bft) 92,11 %
15.11.2015 15:20 15,1 C 15,0 C 12,8 C 87 % 15 lf 1011,0 hPa 0,0 l/m 0 min 2 min 56 W/m 33,5 km/h (5 Bft) 95,74 %
15.11.2015 15:22 15,1 C 15,0 C 12,8 C 88 % 15 lf 1011,0 hPa 0,0 l/m 0 min 2 min 51 W/m 29,3 km/h (5 Bft) 94,34 %
15.11.2015 15:24 15,1 C 15,0 C 12,8 C 88 % 15 lf 1011,0 hPa 0,0 l/m 0 min 2 min 34 W/m 37,7 km/h (5 Bft) 96,00 %
15.11.2015 15:26 15,1 C 15,0 C 12,8 C 88 % 15 lf 1011,1 hPa 0,0 l/m 0 min 2 min 28 W/m 33,5 km/h (5 Bft) 94,59 %
15.11.2015 15:28 15,1 C 15,0 C 12,2 C 88 % 15 lf 1011,0 hPa 0,0 l/m 0 min 2 min 31 W/m 29,3 km/h (5 Bft) 93,62 %
15.11.2015 15:30 15,0 C 14,4 C 12,2 C 88 % 15 lf 1011,2 hPa 0,0 l/m 0 min 2 min 32 W/m 35,6 km/h (5 Bft) 94,34 %
15.11.2015 15:32 15,0 C 13,9 C 12,2 C 88 % 15 lf 1011,1 hPa 0,2 l/m 0 min 2 min 39 W/m 29,3 km/h (5 Bft) 94,00 %
15.11.2015 15:34 15,0 C 13,9 C 12,2 C 88 % 15 lf 1011,1 hPa 0,0 l/m 0 min 2 min 39 W/m 29,3 km/h (5 Bft) 100,00 %
15.11.2015 15:36 14,9 C 13,9 C 12,2 C 89 % 15 lf 1011,1 hPa 0,0 l/m 0 min 2 min 34 W/m 25,1 km/h (4 Bft) 95,74 %
15.11.2015 15:38 14,9 C 13,3 C 12,2 C 89 % 15 lf 1011,1 hPa 0,0 l/m 0 min 2 min 34 W/m 23,0 km/h (4 Bft) 95,74 %
15.11.2015 15:40 14,9 C 13,3 C 12,2 C 89 % 15 lf 1011,1 hPa 0,2 l/m 0 min 2 min 58 W/m 43,9 km/h (6 Bft) 94,34 %
15.11.2015 15:42 14,8 C 13,9 C 12,2 C 89 % 15 lf 1011,1 hPa 0,0 l/m 2 min 2 min 75 W/m 31,4 km/h (5 Bft) 93,62 %
15.11.2015 15:44 14,8 C 13,9 C 12,2 C 89 % 15 lf 1011,2 hPa 0,0 l/m 2 min 2 min 78 W/m 31,4 km/h (5 Bft) 96,00 %
15.11.2015 15:46 14,8 C 13,9 C 12,2 C 90 % 15 lf 1011,2 hPa 0,0 l/m 2 min 2 min 84 W/m 20,9 km/h (4 Bft) 95,74 %
15.11.2015 15:48 14,7 C 13,9 C 12,2 C 90 % 15 lf 1011,1 hPa 0,0 l/m 2 min 2 min 60 W/m 20,9 km/h (4 Bft) 97,30 %
15.11.2015 15:50 14,7 C 13,9 C 12,2 C 90 % 15 lf 1011,2 hPa 0,0 l/m 0 min 2 min 35 W/m 23,0 km/h (4 Bft) 95,74 %
15.11.2015 15:52 14,7 C 13,9 C 12,2 C 90 % 15 lf 1011,2 hPa 0,0 l/m 0 min 2 min 24 W/m 18,8 km/h (3 Bft) 93,62 %
15.11.2015 15:54 14,7 C 13,3 C 12,2 C 91 % 15 lf 1011,2 hPa 0,0 l/m 0 min 2 min 20 W/m 23,0 km/h (4 Bft) 95,74 %
15.11.2015 15:56 14,6 C 13,3 C 12,2 C 91 % 15 lf 1011,3 hPa 0,2 l/m 0 min 2 min 19 W/m 25,1 km/h (4 Bft) 97,83 %
15.11.2015 15:58 14,6 C 13,3 C 12,2 C 91 % 15 lf 1011,3 hPa 0,0 l/m 0 min 2 min 18 W/m 29,3 km/h (5 Bft) 94,44 %
15.11.2015 16:00 14,5 C 13,3 C 12,2 C 91 % 15 lf 1011,3 hPa 0,0 l/m 0 min 2 min 18 W/m 23,0 km/h (4 Bft) 93,62 %
15.11.2015 16:02 14,5 C 13,3 C 12,2 C 91 % 15 lf 1011,3 hPa 0,2 l/m 0 min 2 min 19 W/m 25,1 km/h (4 Bft) 96,00 %
15.11.2015 16:04 14,4 C 13,3 C 12,2 C 91 % 15 lf 1011,3 hPa 0,0 l/m 0 min 2 min 19 W/m 20,9 km/h (4 Bft) 91,30 %
15.11.2015 16:06 14,4 C 13,3 C 12,2 C 91 % 15 lf 1011,4 hPa 0,0 l/m 0 min 2 min 21 W/m 27,2 km/h (4 Bft) 97,37 %
15.11.2015 16:08 14,4 C 13,3 C 12,2 C 91 % 15 lf 1011,3 hPa 0,0 l/m 0 min 2 min 27 W/m 18,8 km/h (3 Bft) 97,83 %
15.11.2015 16:10 14,4 C 13,3 C 12,2 C 91 % 15 lf 1011,4 hPa 0,0 l/m 0 min 2 min 28 W/m 27,2 km/h (4 Bft) 98,15 %
15.11.2015 16:12 14,3 C 13,3 C 12,2 C 92 % 15 lf 1011,3 hPa 0,0 l/m 0 min 2 min 31 W/m 23,0 km/h (4 Bft) 96,00 %
15.11.2015 16:14 14,3 C 13,3 C 12,2 C 92 % 15 lf 1011,4 hPa 0,0 l/m 0 min 0 min 27 W/m 20,9 km/h (4 Bft) 97,87 %
15.11.2015 16:16 14,3 C 13,3 C 12,2 C 92 % 15 lf 1011,5 hPa 0,0 l/m 0 min 0 min 26 W/m 23,0 km/h (4 Bft) 97,30 %
15.11.2015 16:18 14,2 C 13,3 C 12,2 C 92 % 15 lf 1011,4 hPa 0,0 l/m 2 min 0 min 30 W/m 29,3 km/h (5 Bft) 95,74 %
15.11.2015 16:20 14,2 C 13,3 C 12,2 C 92 % 15 lf 1011,4 hPa 0,0 l/m 2 min 0 min 28 W/m 25,1 km/h (4 Bft) 93,48 %
15.11.2015 16:22 14,2 C 13,9 C 12,2 C 92 % 15 lf 1011,5 hPa 0,0 l/m 2 min 0 min 30 W/m 18,8 km/h (3 Bft) 93,62 %
15.11.2015 16:24 14,2 C 13,9 C 12,2 C 92 % 15 lf 1011,5 hPa 0,0 l/m 2 min 0 min 26 W/m 23,0 km/h (4 Bft) 96,30 %
15.11.2015 16:26 14,2 C 13,9 C 12,2 C 92 % 15 lf 1011,5 hPa 0,0 l/m 2 min 0 min 24 W/m 27,2 km/h (4 Bft) 93,62 %
15.11.2015 16:28 14,2 C 13,9 C 12,2 C 92 % 15 lf 1011,5 hPa 0,0 l/m 0 min 0 min 18 W/m 27,2 km/h (4 Bft) 95,92 %
15.11.2015 16:30 14,2 C 13,9 C 12,2 C 92 % 15 lf 1011,6 hPa 0,0 l/m 0 min 0 min 14 W/m 20,9 km/h (4 Bft) 92,11 %
15.11.2015 16:32 14,2 C 13,9 C 12,2 C 91 % 15 lf 1011,6 hPa 0,0 l/m 0 min 0 min 10 W/m 20,9 km/h (4 Bft) 95,65 %
15.11.2015 16:34 14,3 C 13,9 C 11,7 C 91 % 15 lf 1011,6 hPa 0,0 l/m 0 min 0 min 7 W/m 18,8 km/h (3 Bft) 96,30 %
15.11.2015 16:36 14,3 C 13,9 C 11,7 C 91 % 15 lf 1011,5 hPa 0,0 l/m 0 min 0 min 3 W/m 23,0 km/h (4 Bft) 93,62 %
15.11.2015 16:38 14,3 C 13,9 C 11,7 C 91 % 15 lf 1011,6 hPa 0,0 l/m 0 min 0 min 2 W/m 16,7 km/h (3 Bft) 93,62 %
15.11.2015 16:40 14,3 C 13,9 C 11,7 C 91 % 15 lf 1011,6 hPa 0,0 l/m 0 min 0 min 0 W/m 25,1 km/h (4 Bft) 93,48 %
15.11.2015 16:42 14,3 C 13,9 C 11,7 C 91 % 15 lf 1011,6 hPa 0,0 l/m 0 min 0 min 0 W/m 23,0 km/h (4 Bft) 93,62 %
15.11.2015 16:44 14,3 C 13,9 C 11,7 C 91 % 15 lf 1011,6 hPa 0,0 l/m 0 min 0 min 0 W/m 27,2 km/h (4 Bft) 94,00 %
15.11.2015 16:46 14,3 C 13,9 C 11,7 C 91 % 15 lf 1011,7 hPa 0,0 l/m 0 min 0 min 0 W/m 23,0 km/h (4 Bft) 91,49 %
15.11.2015 16:48 14,4 C 13,9 C 11,7 C 91 % 15 lf 1011,7 hPa 0,0 l/m 0 min 0 min 0 W/m 23,0 km/h (4 Bft) 97,87 %
15.11.2015 16:50 14,4 C 13,9 C 11,7 C 91 % 15 lf 1011,8 hPa 0,0 l/m 0 min 0 min 0 W/m 27,2 km/h (4 Bft) 97,83 %
15.11.2015 16:52 14,4 C 13,9 C 11,7 C 91 % 15 lf 1011,8 hPa 0,0 l/m 0 min 0 min 0 W/m 23,0 km/h (4 Bft) 89,47 %
15.11.2015 16:54 14,4 C 13,9 C 11,7 C 91 % 15 lf 1011,8 hPa 0,0 l/m 0 min 0 min 0 W/m 23,0 km/h (4 Bft) 93,62 %
15.11.2015 16:56 14,4 C 13,9 C 11,7 C 91 % 15 lf 1011,8 hPa 0,0 l/m 0 min 2 min 0 W/m 20,9 km/h (4 Bft) 93,48 %
15.11.2015 16:58 14,4 C 13,9 C 11,7 C 91 % 15 lf 1011,9 hPa 0,0 l/m 0 min 2 min 0 W/m 33,5 km/h (5 Bft) 95,74 %
15.11.2015 17:00 14,4 C 13,9 C 11,7 C 90 % 15 lf 1011,9 hPa 0,0 l/m 0 min 2 min 0 W/m 27,2 km/h (4 Bft) 94,44 %
15.11.2015 17:02 14,4 C 13,9 C 11,7 C 90 % 15 lf 1012,0 hPa 0,0 l/m 0 min 2 min 0 W/m 20,9 km/h (4 Bft) 93,75 %
15.11.2015 17:04 14,4 C 13,3 C 11,7 C 90 % 15 lf 1012,0 hPa 0,0 l/m 0 min 2 min 0 W/m 29,3 km/h (5 Bft) 94,74 %
15.11.2015 17:06 14,4 C 13,3 C 11,7 C 90 % 15 lf 1012,0 hPa 0,0 l/m 0 min 0 min 0 W/m 33,5 km/h (5 Bft) 95,74 %
15.11.2015 17:08 14,4 C 13,3 C 11,7 C 90 % 15 lf 1012,0 hPa 0,0 l/m 0 min 0 min 0 W/m 25,1 km/h (4 Bft) 97,87 %
15.11.2015 17:10 14,4 C 13,3 C 11,7 C 90 % 15 lf 1012,1 hPa 0,0 l/m 0 min 0 min 0 W/m 43,9 km/h (6 Bft) 94,55 %
15.11.2015 17:12 14,4 C 13,3 C 11,7 C 90 % 15 lf 1012,1 hPa 0,0 l/m 0 min 2 min 0 W/m 39,7 km/h (6 Bft) 97,37 %
15.11.2015 17:14 14,4 C 13,9 C 11,7 C 90 % 15 lf 1012,1 hPa 0,0 l/m 0 min 0 min 0 W/m 27,2 km/h (4 Bft) 98,18 %
15.11.2015 17:16 14,4 C 13,9 C 11,7 C 90 % 15 lf 1012,0 hPa 0,0 l/m 0 min 2 min 0 W/m 35,6 km/h (5 Bft) 94,87 %
15.11.2015 17:18 14,4 C 14,4 C 11,7 C 90 % 15 lf 1012,1 hPa 0,0 l/m 0 min 0 min 0 W/m 25,1 km/h (4 Bft) 94,55 %
15.11.2015 17:20 14,4 C 14,4 C 11,7 C 90 % 15 lf 1012,2 hPa 0,0 l/m 0 min 0 min 0 W/m 18,8 km/h (3 Bft) 97,37 %
15.11.2015 17:22 14,4 C 14,4 C 11,7 C 90 % 15 lf 1012,2 hPa 0,0 l/m 0 min 2 min 0 W/m 25,1 km/h (4 Bft) 94,74 %
15.11.2015 17:24 14,4 C 14,4 C 11,7 C 90 % 15 lf 1012,2 hPa 0,0 l/m 0 min 2 min 0 W/m 33,5 km/h (5 Bft) 97,37 %
15.11.2015 17:26 14,4 C 14,4 C 11,7 C 89 % 15 lf 1012,2 hPa 0,0 l/m 0 min 2 min 0 W/m 29,3 km/h (5 Bft) 97,87 %
15.11.2015 17:28 14,5 C 14,4 C 11,7 C 89 % 15 lf 1012,3 hPa 0,0 l/m 0 min 2 min 0 W/m 37,7 km/h (5 Bft) 97,87 %
15.11.2015 17:30 14,5 C 14,4 C 11,7 C 89 % 15 lf 1012,3 hPa 0,0 l/m 0 min 2 min 0 W/m 31,4 km/h (5 Bft) 98,18 %
15.11.2015 17:32 14,5 C 14,4 C 11,7 C 89 % 15 lf 1012,3 hPa 0,0 l/m 0 min 2 min 0 W/m 46,0 km/h (6 Bft) 100,00 %
15.11.2015 17:34 14,5 C 14,4 C 11,7 C 89 % 15 lf 1012,4 hPa 0,0 l/m 0 min 2 min 0 W/m 43,9 km/h (6 Bft) 97,87 %
15.11.2015 17:36 14,5 C 14,4 C 11,7 C 89 % 15 lf 1012,4 hPa 0,0 l/m 0 min 2 min 0 W/m 35,6 km/h (5 Bft) 100,00 %
15.11.2015 17:38 14,5 C 13,9 C 11,7 C 89 % 15 lf 1012,4 hPa 0,0 l/m 0 min 2 min 0 W/m 35,6 km/h (5 Bft) 100,00 %
15.11.2015 17:40 14,5 C 13,9 C 11,7 C 89 % 15 lf 1012,5 hPa 0,2 l/m 0 min 2 min 0 W/m 37,7 km/h (5 Bft) 100,00 %
15.11.2015 17:42 14,5 C 13,3 C 11,7 C 89 % 15 lf 1012,5 hPa 0,0 l/m 0 min 2 min 0 W/m 48,1 km/h (6 Bft) 100,00 %
15.11.2015 17:44 14,4 C 13,3 C 11,7 C 89 % 15 lf 1012,4 hPa 0,0 l/m 0 min 2 min 0 W/m 33,5 km/h (5 Bft) 100,00 %
15.11.2015 17:46 14,4 C 12,8 C 11,7 C 89 % 15 lf 1012,4 hPa 0,0 l/m 0 min 2 min 0 W/m 33,5 km/h (5 Bft) 95,74 %
15.11.2015 17:48 14,3 C 12,8 C 11,7 C 89 % 15 lf 1012,5 hPa 0,2 l/m 0 min 2 min 0 W/m 23,0 km/h (4 Bft) 100,00 %
15.11.2015 17:50 14,2 C 12,8 C 11,7 C 90 % 15 lf 1012,4 hPa 0,0 l/m 0 min 2 min 0 W/m 33,5 km/h (5 Bft) 97,37 %
15.11.2015 17:52 14,2 C 12,8 C 11,7 C 90 % 15 lf 1012,4 hPa 0,0 l/m 0 min 2 min 0 W/m 25,1 km/h (4 Bft) 100,00 %
15.11.2015 17:54 14,2 C 12,8 C 11,7 C 90 % 15 lf 1012,4 hPa 0,0 l/m 0 min 2 min 0 W/m 31,4 km/h (5 Bft) 97,83 %
15.11.2015 17:56 14,2 C 12,8 C 11,7 C 90 % 15 lf 1012,5 hPa 0,0 l/m 0 min 2 min 0 W/m 25,1 km/h (4 Bft) 98,21 %
15.11.2015 17:58 14,1 C 12,8 C 11,7 C 90 % 15 lf 1012,5 hPa 0,0 l/m 0 min 2 min 0 W/m 31,4 km/h (5 Bft) 97,37 %
15.11.2015 18:00 14,0 C 12,8 C 11,7 C 90 % 15 lf 1012,5 hPa 0,0 l/m 0 min 2 min 0 W/m 31,4 km/h (5 Bft) 97,87 %
15.11.2015 18:02 13,9 C 12,8 C 11,7 C 91 % 15 lf 1012,5 hPa 0,0 l/m 0 min 2 min 0 W/m 18,8 km/h (3 Bft) 95,74 %
15.11.2015 18:04 13,9 C 12,8 C 11,1 C 91 % 15 lf 1012,5 hPa 0,0 l/m 0 min 0 min 0 W/m 33,5 km/h (5 Bft) 98,21 %
15.11.2015 18:06 13,9 C 12,8 C 11,1 C 91 % 15 lf 1012,6 hPa 0,0 l/m 0 min 2 min 0 W/m 29,3 km/h (5 Bft) 97,30 %
15.11.2015 18:08 13,8 C 12,8 C 11,1 C 91 % 15 lf 1012,6 hPa 0,0 l/m 0 min 2 min 0 W/m 41,8 km/h (6 Bft) 95,74 %
15.11.2015 18:10 13,8 C 12,8 C 11,1 C 91 % 15 lf 1012,6 hPa 0,2 l/m 0 min 2 min 0 W/m 20,9 km/h (4 Bft) 95,74 %
15.11.2015 18:12 13,8 C 12,8 C 11,1 C 91 % 15 lf 1012,6 hPa 0,0 l/m 0 min 2 min 0 W/m 18,8 km/h (3 Bft) 95,74 %
15.11.2015 18:14 13,8 C 12,8 C 11,1 C 91 % 15 lf 1012,5 hPa 0,0 l/m 0 min 2 min 0 W/m 14,6 km/h (3 Bft) 95,74 %
15.11.2015 18:16 13,7 C 12,8 C 11,1 C 91 % 15 lf 1012,6 hPa 0,2 l/m 0 min 2 min 0 W/m 25,1 km/h (4 Bft) 97,83 %
15.11.2015 18:18 13,7 C 12,8 C 11,1 C 91 % 15 lf 1012,5 hPa 0,0 l/m 0 min 2 min 0 W/m 25,1 km/h (4 Bft) 93,62 %
15.11.2015 18:20 13,7 C 12,8 C 11,1 C 91 % 15 lf 1012,5 hPa 0,0 l/m 0 min 2 min 0 W/m 27,2 km/h (4 Bft) 95,74 %
15.11.2015 18:22 13,7 C 12,8 C 11,1 C 92 % 15 lf 1012,5 hPa 0,0 l/m 0 min 2 min 0 W/m 23,0 km/h (4 Bft) 93,62 %
15.11.2015 18:24 13,6 C 12,8 C 11,1 C 92 % 15 lf 1012,5 hPa 0,0 l/m 0 min 2 min 0 W/m 20,9 km/h (4 Bft) 98,11 %
15.11.2015 18:26 13,6 C 12,8 C 11,1 C 92 % 15 lf 1012,5 hPa 0,0 l/m 0 min 2 min 0 W/m 25,1 km/h (4 Bft) 96,00 %
15.11.2015 18:28 13,6 C 12,8 C 11,1 C 92 % 15 lf 1012,6 hPa 0,0 l/m 0 min 2 min 0 W/m 23,0 km/h (4 Bft) 97,37 %
15.11.2015 18:30 13,6 C 12,8 C 11,1 C 92 % 15 lf 1012,5 hPa 0,0 l/m 0 min 2 min 0 W/m 29,3 km/h (5 Bft) 95,65 %
15.11.2015 18:32 13,6 C 12,8 C 11,1 C 92 % 15 lf 1012,6 hPa 0,0 l/m 0 min 0 min 0 W/m 27,2 km/h (4 Bft) 96,30 %
15.11.2015 18:34 13,5 C 12,8 C 11,1 C 92 % 15 lf 1012,6 hPa 0,2 l/m 0 min 0 min 0 W/m 33,5 km/h (5 Bft) 98,00 %
15.11.2015 18:36 13,5 C 12,8 C 11,1 C 92 % 15 lf 1012,6 hPa 0,0 l/m 0 min 2 min 0 W/m 31,4 km/h (5 Bft) 97,30 %
15.11.2015 18:38 13,5 C 12,8 C 11,1 C 92 % 15 lf 1012,6 hPa 0,0 l/m 0 min 2 min 0 W/m 31,4 km/h (5 Bft) 93,62 %
15.11.2015 18:40 13,5 C 12,8 C 11,1 C 92 % 15 lf 1012,6 hPa 0,0 l/m 0 min 0 min 0 W/m 35,6 km/h (5 Bft) 94,34 %
15.11.2015 18:42 13,5 C 12,8 C 11,1 C 92 % 15 lf 1012,6 hPa 0,0 l/m 0 min 0 min 0 W/m 23,0 km/h (4 Bft) 96,00 %
15.11.2015 18:44 13,6 C 12,8 C 11,1 C 92 % 15 lf 1012,6 hPa 0,0 l/m 0 min 0 min 0 W/m 31,4 km/h (5 Bft) 97,87 %
15.11.2015 18:46 13,5 C 12,8 C 11,1 C 92 % 15 lf 1012,6 hPa 0,0 l/m 0 min 0 min 0 W/m 25,1 km/h (4 Bft) 97,30 %
15.11.2015 18:48 13,6 C 12,8 C 11,1 C 92 % 15 lf 1012,7 hPa 0,0 l/m 0 min 2 min 0 W/m 31,4 km/h (5 Bft) 100,00 %
15.11.2015 18:50 13,5 C 12,8 C 11,1 C 92 % 15 lf 1012,7 hPa 0,0 l/m 0 min 0 min 0 W/m 33,5 km/h (5 Bft) 94,34 %
15.11.2015 18:52 13,6 C 12,8 C 11,1 C 92 % 15 lf 1012,7 hPa 0,0 l/m 0 min 0 min 0 W/m 37,7 km/h (5 Bft) 96,00 %
15.11.2015 18:54 13,6 C 12,8 C 11,1 C 92 % 15 lf 1012,6 hPa 0,0 l/m 0 min 0 min 0 W/m 39,7 km/h (6 Bft) 97,30 %
15.11.2015 18:56 13,6 C 12,8 C 11,1 C 91 % 15 lf 1012,7 hPa 0,0 l/m 0 min 0 min 0 W/m 27,2 km/h (4 Bft) 97,87 %
15.11.2015 18:58 13,6 C 12,8 C 11,1 C 91 % 15 lf 1012,7 hPa 0,0 l/m 0 min 0 min 0 W/m 37,7 km/h (5 Bft) 96,30 %
15.11.2015 19:00 13,6 C 12,8 C 11,1 C 91 % 15 lf 1012,8 hPa 0,0 l/m 0 min 0 min 0 W/m 25,1 km/h (4 Bft) 95,65 %
15.11.2015 19:02 13,6 C 12,8 C 11,1 C 91 % 15 lf 1012,7 hPa 0,0 l/m 0 min 0 min 0 W/m 37,7 km/h (5 Bft) 94,00 %
15.11.2015 19:04 13,6 C 12,8 C 11,1 C 91 % 15 lf 1012,8 hPa 0,0 l/m 0 min 0 min 0 W/m 35,6 km/h (5 Bft) 94,59 %
15.11.2015 19:06 13,6 C 12,8 C 11,1 C 91 % 15 lf 1012,8 hPa 0,0 l/m 0 min 0 min 0 W/m 29,3 km/h (5 Bft) 93,62 %
15.11.2015 19:08 13,7 C 12,8 C 11,1 C 91 % 15 lf 1012,8 hPa 0,0 l/m 0 min 0 min 0 W/m 39,7 km/h (6 Bft) 94,44 %
15.11.2015 19:10 13,7 C 12,8 C 11,1 C 91 % 15 lf 1012,8 hPa 0,0 l/m 0 min 0 min 0 W/m 35,6 km/h (5 Bft) 95,92 %
15.11.2015 19:12 13,7 C 12,8 C 11,1 C 90 % 15 lf 1012,8 hPa 0,0 l/m 0 min 0 min 0 W/m 31,4 km/h (5 Bft) 94,74 %
15.11.2015 19:14 13,7 C 12,8 C 11,1 C 90 % 15 lf 1012,8 hPa 0,0 l/m 0 min 0 min 0 W/m 33,5 km/h (5 Bft) 95,74 %
15.11.2015 19:16 13,7 C 12,8 C 11,1 C 90 % 15 lf 1012,9 hPa 0,0 l/m 0 min 0 min 0 W/m 27,2 km/h (4 Bft) 95,65 %
15.11.2015 19:18 13,7 C 12,8 C 11,1 C 90 % 15 lf 1012,9 hPa 0,0 l/m 0 min 0 min 0 W/m 37,7 km/h (5 Bft) 95,74 %
15.11.2015 19:20 13,7 C 12,8 C 11,1 C 90 % 15 lf 1013,0 hPa 0,0 l/m 0 min 0 min 0 W/m 29,3 km/h (5 Bft) 98,15 %
15.11.2015 19:22 13,7 C 12,8 C 11,1 C 90 % 14 lf 1012,9 hPa 0,0 l/m 0 min 0 min 0 W/m 33,5 km/h (5 Bft) 97,96 %
15.11.2015 19:24 13,7 C 12,8 C 11,1 C 90 % 13 lf 1013,0 hPa 0,0 l/m 0 min 0 min 0 W/m 31,4 km/h (5 Bft) 97,37 %
15.11.2015 19:26 13,8 C 12,8 C 11,1 C 90 % 13 lf 1012,9 hPa 0,0 l/m 0 min 0 min 0 W/m 33,5 km/h (5 Bft) 97,87 %
15.11.2015 19:28 13,8 C 12,8 C 11,1 C 89 % 12 lf 1013,0 hPa 0,0 l/m 0 min 0 min 0 W/m 33,5 km/h (5 Bft) 94,34 %
15.11.2015 19:30 13,8 C 12,8 C 11,1 C 89 % 12 lf 1013,0 hPa 0,0 l/m 0 min 0 min 0 W/m 31,4 km/h (5 Bft) 96,00 %
15.11.2015 19:32 13,8 C 12,8 C 11,1 C 89 % 11 lf 1013,0 hPa 0,0 l/m 0 min 0 min 0 W/m 31,4 km/h (5 Bft) 100,00 %
15.11.2015 19:34 13,8 C 13,3 C 11,1 C 89 % 11 lf 1013,1 hPa 0,0 l/m 0 min 0 min 0 W/m 29,3 km/h (5 Bft) 93,62 %
15.11.2015 19:36 13,8 C 12,8 C 11,1 C 89 % 10 lf 1013,0 hPa 0,0 l/m 0 min 0 min 0 W/m 37,7 km/h (5 Bft) 93,62 %
15.11.2015 19:38 13,8 C 12,8 C 11,1 C 89 % 10 lf 1013,1 hPa 0,0 l/m 0 min 0 min 0 W/m 31,4 km/h (5 Bft) 95,65 %
15.11.2015 19:40 13,8 C 12,8 C 11,1 C 89 % 8 lf 1013,1 hPa 0,0 l/m 0 min 0 min 0 W/m 33,5 km/h (5 Bft) 96,30 %
15.11.2015 19:42 13,8 C 12,8 C 11,1 C 88 % 6 lf 1013,1 hPa 0,0 l/m 0 min 0 min 0 W/m 33,5 km/h (5 Bft) 95,74 %
15.11.2015 19:44 13,8 C 12,8 C 11,1 C 88 % 4 lf 1013,1 hPa 0,0 l/m 0 min 0 min 0 W/m 33,5 km/h (5 Bft) 94,00 %
15.11.2015 19:46 13,8 C 12,8 C 11,1 C 88 % 3 lf 1013,1 hPa 0,0 l/m 0 min 0 min 0 W/m 35,6 km/h (5 Bft) 94,59 %
15.11.2015 19:48 13,8 C 12,8 C 11,1 C 88 % 2 lf 1013,2 hPa 0,0 l/m 0 min 0 min 0 W/m 33,5 km/h (5 Bft) 95,74 %
15.11.2015 19:50 13,8 C 12,8 C 11,1 C 88 % 1 lf 1013,2 hPa 0,0 l/m 0 min 0 min 0 W/m 39,7 km/h (6 Bft) 94,34 %
15.11.2015 19:52 13,8 C 12,8 C 11,1 C 88 % 1 lf 1013,2 hPa 0,0 l/m 0 min 0 min 0 W/m 35,6 km/h (5 Bft) 96,00 %
15.11.2015 19:54 13,8 C 12,8 C 11,1 C 88 % 1 lf 1013,2 hPa 0,0 l/m 0 min 0 min 0 W/m 33,5 km/h (5 Bft) 97,30 %
15.11.2015 19:56 13,8 C 13,3 C 11,1 C 88 % 1 lf 1013,2 hPa 0,0 l/m 0 min 0 min 0 W/m 33,5 km/h (5 Bft) 93,62 %
15.11.2015 19:58 13,8 C 13,3 C 11,1 C 88 % 0 lf 1013,3 hPa 0,0 l/m 0 min 0 min 0 W/m 33,5 km/h (5 Bft) 96,23 %
15.11.2015 20:00 13,8 C 13,3 C 11,1 C 88 % 0 lf 1013,3 hPa 0,0 l/m 0 min 0 min 0 W/m 48,1 km/h (6 Bft) 96,00 %
15.11.2015 20:02 13,8 C 13,9 C 11,1 C 88 % 0 lf 1013,3 hPa 0,0 l/m 0 min 0 min 0 W/m 39,7 km/h (6 Bft) 91,89 %
15.11.2015 20:04 13,8 C 13,9 C 11,1 C 87 % 0 lf 1013,4 hPa 0,0 l/m 0 min 0 min 0 W/m 33,5 km/h (5 Bft) 95,74 %
15.11.2015 20:06 13,8 C 13,9 C 11,1 C 87 % 0 lf 1013,3 hPa 0,0 l/m 0 min 0 min 0 W/m 31,4 km/h (5 Bft) 96,30 %
15.11.2015 20:08 13,8 C 13,9 C 11,1 C 87 % 0 lf 1013,4 hPa 0,0 l/m 0 min 0 min 0 W/m 29,3 km/h (5 Bft) 93,62 %
15.11.2015 20:10 13,8 C 13,9 C 11,1 C 87 % 0 lf 1013,4 hPa 0,0 l/m 0 min 0 min 0 W/m 33,5 km/h (5 Bft) 97,83 %
15.11.2015 20:12 13,8 C 13,9 C 11,1 C 87 % 0 lf 1013,5 hPa 0,0 l/m 0 min 0 min 0 W/m 33,5 km/h (5 Bft) 97,87 %
15.11.2015 20:14 13,8 C 13,9 C 11,1 C 87 % 0 lf 1013,5 hPa 0,0 l/m 0 min 0 min 0 W/m 31,4 km/h (5 Bft) 97,87 %
15.11.2015 20:16 13,8 C 13,9 C 11,1 C 87 % 0 lf 1013,5 hPa 0,0 l/m 0 min 0 min 0 W/m 31,4 km/h (5 Bft) 97,87 %
15.11.2015 20:18 13,7 C 13,9 C 11,1 C 87 % 0 lf 1013,5 hPa 0,0 l/m 0 min 0 min 0 W/m 31,4 km/h (5 Bft) 96,00 %
15.11.2015 20:20 13,7 C 13,9 C 11,1 C 87 % 0 lf 1013,5 hPa 0,0 l/m 0 min 0 min 0 W/m 27,2 km/h (4 Bft) 100,00 %
15.11.2015 20:22 13,7 C 13,9 C 11,1 C 87 % 0 lf 1013,5 hPa 0,0 l/m 0 min 0 min 0 W/m 27,2 km/h (4 Bft) 95,74 %
15.11.2015 20:24 13,7 C 13,9 C 11,1 C 87 % 0 lf 1013,6 hPa 0,0 l/m 0 min 0 min 0 W/m 33,5 km/h (5 Bft) 94,34 %
15.11.2015 20:26 13,7 C 13,9 C 11,1 C 87 % 0 lf 1013,6 hPa 0,0 l/m 0 min 0 min 0 W/m 31,4 km/h (5 Bft) 98,00 %
15.11.2015 20:28 13,7 C 13,9 C 11,1 C 87 % 0 lf 1013,6 hPa 0,0 l/m 0 min 0 min 0 W/m 29,3 km/h (5 Bft) 97,30 %
15.11.2015 20:30 13,7 C 13,9 C 11,1 C 87 % 0 lf 1013,6 hPa 0,0 l/m 0 min 0 min 0 W/m 33,5 km/h (5 Bft) 97,87 %
15.11.2015 20:32 13,7 C 13,9 C 11,1 C 87 % 0 lf 1013,6 hPa 0,0 l/m 0 min 0 min 0 W/m 35,6 km/h (5 Bft) 97,62 %
15.11.2015 20:34 13,7 C 13,9 C 11,1 C 87 % 0 lf 1013,6 hPa 0,0 l/m 0 min 0 min 0 W/m 29,3 km/h (5 Bft) 96,15 %
15.11.2015 20:36 13,6 C 13,9 C 11,1 C 87 % 0 lf 1013,6 hPa 0,0 l/m 0 min 0 min 0 W/m 20,9 km/h (4 Bft) 82,98 %
15.11.2015 20:38 13,6 C 13,9 C 11,1 C 87 % 0 lf 1013,7 hPa 0,0 l/m 0 min 0 min 0 W/m 25,1 km/h (4 Bft) 98,11 %
15.11.2015 20:40 13,6 C 13,9 C 11,1 C 87 % 0 lf 1013,7 hPa 0,0 l/m 0 min 0 min 0 W/m 31,4 km/h (5 Bft) 92,00 %
15.11.2015 20:42 13,6 C 13,9 C 11,1 C 87 % 0 lf 1013,7 hPa 0,0 l/m 0 min 0 min 0 W/m 33,5 km/h (5 Bft) 100,00 %
15.11.2015 20:44 13,6 C 13,9 C 11,1 C 87 % 0 lf 1013,7 hPa 0,0 l/m 0 min 0 min 0 W/m 35,6 km/h (5 Bft) 95,74 %
15.11.2015 20:46 13,6 C 13,9 C 10,6 C 87 % 0 lf 1013,8 hPa 0,0 l/m 0 min 0 min 0 W/m 18,8 km/h (3 Bft) 96,23 %
15.11.2015 20:48 13,6 C 13,9 C 10,6 C 87 % 0 lf 1013,8 hPa 0,0 l/m 0 min 0 min 0 W/m 27,2 km/h (4 Bft) 96,00 %
15.11.2015 20:50 13,5 C 13,3 C 10,6 C 87 % 0 lf 1013,9 hPa 0,0 l/m 0 min 0 min 0 W/m 27,2 km/h (4 Bft) 100,00 %
15.11.2015 20:52 13,5 C 13,3 C 10,6 C 87 % 0 lf 1013,8 hPa 0,0 l/m 0 min 0 min 0 W/m 29,3 km/h (5 Bft) 95,74 %
15.11.2015 20:54 13,5 C 13,3 C 10,6 C 87 % 0 lf 1013,8 hPa 0,0 l/m 0 min 0 min 0 W/m 27,2 km/h (4 Bft) 92,59 %
15.11.2015 20:56 13,5 C 13,3 C 10,6 C 87 % 0 lf 1013,7 hPa 0,0 l/m 0 min 0 min 0 W/m 25,1 km/h (4 Bft) 89,80 %
15.11.2015 20:58 13,5 C 13,9 C 10,6 C 87 % 0 lf 1013,7 hPa 0,0 l/m 0 min 0 min 0 W/m 35,6 km/h (5 Bft) 93,62 %
15.11.2015 21:00 13,4 C 13,3 C 10,6 C 87 % 0 lf 1013,7 hPa 0,0 l/m 0 min 0 min 0 W/m 31,4 km/h (5 Bft) 94,74 %
15.11.2015 21:02 13,4 C 13,3 C 10,6 C 86 % 0 lf 1013,7 hPa 0,0 l/m 0 min 0 min 0 W/m 31,4 km/h (5 Bft) 95,65 %
15.11.2015 21:04 13,4 C 13,3 C 10,6 C 86 % 0 lf 1013,9 hPa 0,0 l/m 0 min 0 min 0 W/m 31,4 km/h (5 Bft) 91,49 %
15.11.2015 21:06 13,4 C 13,3 C 10,6 C 86 % 0 lf 1013,8 hPa 0,0 l/m 0 min 0 min 0 W/m 29,3 km/h (5 Bft) 90,91 %
15.11.2015 21:08 13,4 C 13,3 C 10,6 C 86 % 0 lf 1013,8 hPa 0,0 l/m 0 min 0 min 0 W/m 27,2 km/h (4 Bft) 94,74 %
15.11.2015 21:10 13,4 C 13,3 C 10,6 C 86 % 0 lf 1013,8 hPa 0,0 l/m 0 min 0 min 0 W/m 25,1 km/h (4 Bft) 96,36 %
15.11.2015 21:12 13,4 C 13,3 C 10,6 C 86 % 0 lf 1013,8 hPa 0,0 l/m 0 min 0 min 0 W/m 25,1 km/h (4 Bft) 95,74 %
15.11.2015 21:14 13,4 C 13,3 C 10,6 C 86 % 0 lf 1013,9 hPa 0,0 l/m 0 min 0 min 0 W/m 37,7 km/h (5 Bft) 97,87 %
15.11.2015 21:16 13,4 C 13,3 C 10,6 C 86 % 0 lf 1013,8 hPa 0,0 l/m 0 min 0 min 0 W/m 31,4 km/h (5 Bft) 93,62 %
15.11.2015 21:18 13,4 C 13,3 C 11,1 C 86 % 0 lf 1013,8 hPa 0,0 l/m 0 min 0 min 0 W/m 29,3 km/h (5 Bft) 97,87 %
15.11.2015 21:20 13,4 C 13,3 C 11,1 C 86 % 0 lf 1013,9 hPa 0,0 l/m 0 min 0 min 0 W/m 23,0 km/h (4 Bft) 97,37 %
15.11.2015 21:22 13,4 C 13,3 C 11,1 C 86 % 0 lf 1013,9 hPa 0,0 l/m 0 min 0 min 0 W/m 31,4 km/h (5 Bft) 96,43 %
15.11.2015 21:24 13,4 C 13,3 C 11,1 C 86 % 0 lf 1013,9 hPa 0,0 l/m 0 min 0 min 0 W/m 25,1 km/h (4 Bft) 94,74 %
15.11.2015 21:26 13,4 C 13,3 C 11,7 C 86 % 0 lf 1013,9 hPa 0,0 l/m 0 min 0 min 0 W/m 31,4 km/h (5 Bft) 93,62 %
15.11.2015 21:28 13,3 C 13,3 C 11,7 C 86 % 0 lf 1014,0 hPa 0,0 l/m 0 min 0 min 0 W/m 25,1 km/h (4 Bft) 97,87 %
15.11.2015 21:30 13,3 C 13,3 C 11,7 C 86 % 0 lf 1013,9 hPa 0,0 l/m 0 min 0 min 0 W/m 27,2 km/h (4 Bft) 97,87 %
15.11.2015 21:32 13,3 C 13,3 C 11,7 C 86 % 0 lf 1013,9 hPa 0,0 l/m 0 min 0 min 0 W/m 31,4 km/h (5 Bft) 95,74 %
15.11.2015 21:34 13,3 C 13,3 C 11,7 C 86 % 0 lf 1014,0 hPa 0,0 l/m 0 min 0 min 0 W/m 18,8 km/h (3 Bft) 97,87 %
15.11.2015 21:36 13,3 C 13,3 C 11,7 C 86 % 0 lf 1014,0 hPa 0,0 l/m 0 min 0 min 0 W/m 27,2 km/h (4 Bft) 95,65 %
15.11.2015 21:38 13,3 C 13,3 C 11,7 C 86 % 0 lf 1014,0 hPa 0,0 l/m 0 min 0 min 0 W/m 31,4 km/h (5 Bft) 96,43 %
15.11.2015 21:40 13,3 C 13,3 C 11,7 C 86 % 0 lf 1014,0 hPa 0,0 l/m 0 min 0 min 0 W/m 20,9 km/h (4 Bft) 97,37 %
15.11.2015 21:42 13,3 C 13,3 C 11,7 C 86 % 0 lf 1014,1 hPa 0,0 l/m 0 min 0 min 0 W/m 20,9 km/h (4 Bft) 95,74 %
15.11.2015 21:44 13,3 C 13,3 C 11,7 C 86 % 0 lf 1014,1 hPa 0,0 l/m 0 min 0 min 0 W/m 23,0 km/h (4 Bft) 95,74 %
15.11.2015 21:46 13,3 C 13,3 C 11,7 C 86 % 0 lf 1014,0 hPa 0,0 l/m 0 min 0 min 0 W/m 37,7 km/h (5 Bft) 96,36 %
15.11.2015 21:48 13,3 C 13,3 C 11,7 C 86 % 0 lf 1014,0 hPa 0,0 l/m 0 min 0 min 0 W/m 20,9 km/h (4 Bft) 100,00 %
15.11.2015 21:50 13,3 C 13,3 C 11,7 C 86 % 0 lf 1014,0 hPa 0,0 l/m 0 min 0 min 0 W/m 18,8 km/h (3 Bft) 100,00 %
15.11.2015 21:52 13,3 C 13,3 C 11,1 C 86 % 0 lf 1014,1 hPa 0,0 l/m 0 min 0 min 0 W/m 20,9 km/h (4 Bft) 93,62 %
15.11.2015 21:54 13,3 C 13,3 C 11,7 C 86 % 0 lf 1014,1 hPa 0,0 l/m 0 min 0 min 0 W/m 23,0 km/h (4 Bft) 98,18 %
15.11.2015 21:56 13,2 C 13,3 C 11,7 C 86 % 0 lf 1014,0 hPa 0,0 l/m 0 min 0 min 0 W/m 27,2 km/h (4 Bft) 97,44 %
15.11.2015 21:58 13,2 C 13,3 C 11,7 C 86 % 0 lf 1014,1 hPa 0,0 l/m 0 min 0 min 0 W/m 18,8 km/h (3 Bft) 95,74 %
15.11.2015 22:00 13,2 C 13,3 C 11,1 C 86 % 0 lf 1014,1 hPa 0,0 l/m 0 min 0 min 0 W/m 31,4 km/h (5 Bft) 95,65 %
15.11.2015 22:02 13,2 C 13,3 C 11,7 C 86 % 0 lf 1014,1 hPa 0,0 l/m 0 min 0 min 0 W/m 27,2 km/h (4 Bft) 98,21 %
15.11.2015 22:04 13,2 C 13,3 C 11,7 C 86 % 0 lf 1014,2 hPa 0,0 l/m 0 min 0 min 0 W/m 29,3 km/h (5 Bft) 97,37 %
15.11.2015 22:06 13,2 C 13,3 C 11,7 C 86 % 0 lf 1014,1 hPa 0,0 l/m 0 min 0 min 0 W/m 14,6 km/h (3 Bft) 95,74 %
15.11.2015 22:08 13,1 C 13,3 C 11,7 C 86 % 0 lf 1014,1 hPa 0,0 l/m 0 min 0 min 0 W/m 20,9 km/h (4 Bft) 95,74 %
15.11.2015 22:10 13,1 C 13,3 C 11,7 C 86 % 0 lf 1014,2 hPa 0,0 l/m 0 min 0 min 0 W/m 20,9 km/h (4 Bft) 97,87 %
15.11.2015 22:12 13,1 C 13,3 C 11,7 C 86 % 0 lf 1014,2 hPa 0,0 l/m 0 min 0 min 0 W/m 20,9 km/h (4 Bft) 95,65 %
15.11.2015 22:14 13,1 C 13,3 C 11,7 C 86 % 0 lf 1014,3 hPa 0,0 l/m 0 min 0 min 0 W/m 18,8 km/h (3 Bft) 96,43 %
15.11.2015 22:16 13,1 C 12,8 C 11,7 C 86 % 0 lf 1014,2 hPa 0,0 l/m 0 min 0 min 0 W/m 16,7 km/h (3 Bft) 95,74 %
15.11.2015 22:18 13,1 C 12,8 C 11,7 C 86 % 0 lf 1014,2 hPa 0,0 l/m 0 min 0 min 0 W/m 23,0 km/h (4 Bft) 97,37 %
15.11.2015 22:20 13,1 C 12,8 C 11,7 C 86 % 0 lf 1014,2 hPa 0,0 l/m 0 min 0 min 0 W/m 27,2 km/h (4 Bft) 97,87 %
15.11.2015 22:22 13,1 C 12,8 C 11,7 C 86 % 0 lf 1014,2 hPa 0,0 l/m 0 min 0 min 0 W/m 25,1 km/h (4 Bft) 95,65 %
15.11.2015 22:24 13,0 C 12,8 C 11,7 C 86 % 0 lf 1014,2 hPa 0,0 l/m 0 min 0 min 0 W/m 23,0 km/h (4 Bft) 95,74 %
15.11.2015 22:26 13,0 C 12,8 C 11,7 C 86 % 0 lf 1014,2 hPa 0,0 l/m 0 min 0 min 0 W/m 20,9 km/h (4 Bft) 94,64 %
15.11.2015 22:28 13,0 C 12,8 C 11,7 C 86 % 0 lf 1014,2 hPa 0,0 l/m 0 min 0 min 0 W/m 23,0 km/h (4 Bft) 94,74 %
15.11.2015 22:30 13,0 C 12,8 C 11,7 C 86 % 0 lf 1014,1 hPa 0,0 l/m 0 min 0 min 0 W/m 27,2 km/h (4 Bft) 97,87 %
15.11.2015 22:32 13,0 C 12,8 C 11,7 C 86 % 0 lf 1014,2 hPa 0,0 l/m 0 min 0 min 0 W/m 20,9 km/h (4 Bft) 97,87 %
15.11.2015 22:33 12,9 C 12,8 C 11,7 C 86 % 0 lf 1014,2 hPa 0,0 l/m 0 min 0 min 0 W/m 23,0 km/h (4 Bft) 95,65 %
15.11.2015 22:34 12,9 C 12,8 C 11,7 C 86 % 0 lf 1014,2 hPa 0,0 l/m 0 min 0 min 0 W/m 25,1 km/h (4 Bft) 100,00 %
15.11.2015 22:35 12,9 C 12,8 C 11,7 C 86 % 0 lf 1014,3 hPa 0,0 l/m 0 min 0 min 0 W/m 29,3 km/h (5 Bft) 100,00 %
15.11.2015 22:36 12,9 C 12,8 C 11,7 C 86 % 0 lf 1014,2 hPa 0,0 l/m 0 min 0 min 0 W/m 29,3 km/h (5 Bft) 100,00 %
15.11.2015 22:37 12,9 C 12,8 C 11,7 C 86 % 0 lf 1014,3 hPa 0,0 l/m 0 min 0 min 0 W/m 25,1 km/h (4 Bft) 91,30 %
15.11.2015 22:38 12,9 C 12,8 C 11,7 C 86 % 0 lf 1014,3 hPa 0,0 l/m 0 min 0 min 0 W/m 16,7 km/h (3 Bft) 100,00 %
15.11.2015 22:39 12,9 C 12,8 C 11,7 C 86 % 0 lf 1014,3 hPa 0,0 l/m 0 min 0 min 0 W/m 16,7 km/h (3 Bft) 95,65 %
15.11.2015 22:42 12,9 C 12,8 C 11,1 C 86 % 0 lf 1014,3 hPa 0,0 l/m 0 min 0 min 0 W/m 20,9 km/h (4 Bft) 96,14 %
15.11.2015 22:44 12,9 C 12,8 C 11,1 C 86 % 0 lf 1014,3 hPa 0,0 l/m 0 min 0 min 0 W/m 20,9 km/h (4 Bft) 97,87 %
15.11.2015 22:46 12,9 C 12,8 C 11,1 C 86 % 0 lf 1014,3 hPa 0,0 l/m 0 min 0 min 0 W/m 18,8 km/h (3 Bft) 95,74 %
15.11.2015 22:48 12,9 C 12,8 C 11,1 C 86 % 0 lf 1014,3 hPa 0,0 l/m 0 min 0 min 0 W/m 27,2 km/h (4 Bft) 97,87 %
15.11.2015 22:50 12,9 C 12,8 C 11,1 C 86 % 0 lf 1014,3 hPa 0,0 l/m 0 min 0 min 0 W/m 25,1 km/h (4 Bft) 97,83 %
15.11.2015 22:52 12,8 C 12,8 C 11,1 C 86 % 0 lf 1014,2 hPa 0,0 l/m 0 min 0 min 0 W/m 23,0 km/h (4 Bft) 97,87 %
15.11.2015 22:54 12,8 C 12,8 C 11,1 C 86 % 0 lf 1014,3 hPa 0,0 l/m 0 min 0 min 0 W/m 20,9 km/h (4 Bft) 93,62 %
15.11.2015 22:56 12,8 C 12,8 C 11,1 C 86 % 0 lf 1014,3 hPa 0,0 l/m 0 min 0 min 0 W/m 25,1 km/h (4 Bft) 96,00 %
15.11.2015 22:58 12,8 C 12,8 C 11,1 C 86 % 0 lf 1014,3 hPa 0,0 l/m 0 min 0 min 0 W/m 25,1 km/h (4 Bft) 100,00 %
15.11.2015 23:00 12,8 C 12,8 C 11,1 C 86 % 0 lf 1014,3 hPa 0,0 l/m 0 min 0 min 0 W/m 25,1 km/h (4 Bft) 97,87 %
15.11.2015 23:02 12,8 C 12,8 C 11,1 C 86 % 0 lf 1014,3 hPa 0,0 l/m 0 min 0 min 0 W/m 18,8 km/h (3 Bft) 95,65 %
15.11.2015 23:04 12,8 C 12,8 C 11,1 C 86 % 0 lf 1014,3 hPa 0,0 l/m 0 min 0 min 0 W/m 27,2 km/h (4 Bft) 97,87 %
15.11.2015 23:06 12,7 C 12,8 C 11,1 C 86 % 0 lf 1014,2 hPa 0,0 l/m 0 min 0 min 0 W/m 20,9 km/h (4 Bft) 97,87 %
15.11.2015 23:08 12,7 C 12,8 C 11,1 C 86 % 0 lf 1014,2 hPa 0,0 l/m 0 min 0 min 0 W/m 27,2 km/h (4 Bft) 100,00 %
15.11.2015 23:10 12,7 C 12,8 C 11,1 C 86 % 0 lf 1014,2 hPa 0,0 l/m 0 min 0 min 0 W/m 23,0 km/h (4 Bft) 93,62 %
15.11.2015 23:12 12,7 C 12,8 C 11,1 C 86 % 0 lf 1014,2 hPa 0,0 l/m 0 min 0 min 0 W/m 27,2 km/h (4 Bft) 100,00 %
15.11.2015 23:14 12,7 C 12,8 C 11,1 C 86 % 0 lf 1014,2 hPa 0,0 l/m 0 min 0 min 0 W/m 25,1 km/h (4 Bft) 95,65 %
15.11.2015 23:16 12,7 C 12,8 C 11,1 C 86 % 0 lf 1014,2 hPa 0,0 l/m 0 min 0 min 0 W/m 25,1 km/h (4 Bft) 100,00 %
15.11.2015 23:18 12,7 C 12,8 C 11,1 C 86 % 0 lf 1014,3 hPa 0,0 l/m 0 min 0 min 0 W/m 29,3 km/h (5 Bft) 100,00 %
15.11.2015 23:20 12,7 C 12,8 C 11,1 C 86 % 0 lf 1014,2 hPa 0,0 l/m 0 min 0 min 0 W/m 27,2 km/h (4 Bft) 97,87 %
15.11.2015 23:22 12,6 C 12,8 C 11,1 C 86 % 0 lf 1014,3 hPa 0,0 l/m 0 min 0 min 0 W/m 20,9 km/h (4 Bft) 97,87 %
15.11.2015 23:24 12,6 C 12,8 C 11,1 C 86 % 0 lf 1014,3 hPa 0,0 l/m 0 min 0 min 0 W/m 23,0 km/h (4 Bft) 97,83 %
15.11.2015 23:26 12,6 C 12,8 C 11,1 C 86 % 0 lf 1014,3 hPa 0,0 l/m 0 min 0 min 0 W/m 25,1 km/h (4 Bft) 100,00 %
15.11.2015 23:28 12,6 C 12,8 C 11,1 C 86 % 0 lf 1014,2 hPa 0,0 l/m 0 min 0 min 0 W/m 27,2 km/h (4 Bft) 97,87 %
15.11.2015 23:30 12,6 C 12,8 C 11,1 C 86 % 0 lf 1014,2 hPa 0,0 l/m 0 min 0 min 0 W/m 29,3 km/h (5 Bft) 100,00 %
15.11.2015 23:32 12,6 C 12,8 C 11,1 C 86 % 0 lf 1014,2 hPa 0,0 l/m 0 min 0 min 0 W/m 23,0 km/h (4 Bft) 97,87 %
15.11.2015 23:34 12,5 C 12,8 C 11,1 C 86 % 0 lf 1014,2 hPa 0,0 l/m 0 min 0 min 0 W/m 29,3 km/h (5 Bft) 97,87 %
15.11.2015 23:36 12,6 C 12,8 C 11,1 C 86 % 0 lf 1014,2 hPa 0,0 l/m 0 min 0 min 0 W/m 33,5 km/h (5 Bft) 95,65 %
15.11.2015 23:38 12,5 C 12,8 C 11,1 C 86 % 0 lf 1014,2 hPa 0,0 l/m 0 min 0 min 0 W/m 29,3 km/h (5 Bft) 97,87 %
15.11.2015 23:40 12,5 C 12,8 C 11,1 C 86 % 0 lf 1014,3 hPa 0,0 l/m 0 min 0 min 0 W/m 25,1 km/h (4 Bft) 95,74 %
15.11.2015 23:42 12,5 C 12,8 C 11,1 C 86 % 0 lf 1014,3 hPa 0,0 l/m 0 min 0 min 0 W/m 18,8 km/h (3 Bft) 97,87 %
15.11.2015 23:44 12,5 C 12,8 C 11,1 C 86 % 0 lf 1014,3 hPa 0,0 l/m 0 min 0 min 0 W/m 29,3 km/h (5 Bft) 97,87 %
15.11.2015 23:46 12,5 C 12,8 C 11,1 C 86 % 0 lf 1014,2 hPa 0,0 l/m 0 min 0 min 0 W/m 20,9 km/h (4 Bft) 97,87 %
15.11.2015 23:48 12,4 C 12,2 C 11,1 C 87 % 0 lf 1014,2 hPa 0,0 l/m 0 min 0 min 0 W/m 27,2 km/h (4 Bft) 95,65 %
15.11.2015 23:50 12,4 C 12,2 C 11,1 C 87 % 0 lf 1014,3 hPa 0,0 l/m 0 min 0 min 0 W/m 27,2 km/h (4 Bft) 97,87 %
15.11.2015 23:52 12,4 C 12,2 C 11,1 C 87 % 0 lf 1014,4 hPa 0,0 l/m 0 min 0 min 0 W/m 20,9 km/h (4 Bft) 95,74 %
15.11.2015 23:54 12,4 C 12,2 C 11,1 C 87 % 0 lf 1014,4 hPa 0,0 l/m 0 min 0 min 0 W/m 33,5 km/h (5 Bft) 93,62 %
15.11.2015 23:56 12,4 C 12,2 C 11,1 C 86 % 0 lf 1014,4 hPa 0,0 l/m 0 min 0 min 0 W/m 27,2 km/h (4 Bft) 95,74 %
15.11.2015 23:58 12,4 C 12,2 C 11,1 C 87 % 0 lf 1014,4 hPa 0,0 l/m 0 min 0 min 0 W/m 23,0 km/h (4 Bft) 93,62 %
_ Min-Zeit 00:00 00:00 00:00 11:48 07:18 06:58 - - - - 18:14 20:36
Minimum _ 9,7 C 9,4 C 8,3 C 82 % 0 lf 1009,9 hPa - - - - 14,6 km/h (3 Bft) 82,98 %
_ Max-Zeit 12:02 11:32 11:56 00:00 00:00 00:00 03:20 10:58 00:28 11:50 12:06 00:08
Maximum _ 16,2 C 17,8 C 15,6 C 97 % 15 lf 1015,1 hPa 0,2 l/m 2 min 2 min 275 W/m 73,2 km/h
W (8 Bft)
100,00 %
Durchschnitt _ 13,4 C 13,3 C 11,5 C 90 % 8 lf 1011,8 hPa #3,2 l/m #1:10 h #6:50 h 84 W/m 37,9 km/h (5 Bft) 96,18 %
© 2015 W. Hausmann